Time,TemperatureF,DewpointF,PressureIn,WindDirection,WindDirectionDegrees,WindSpeedMPH,WindSpeedGustMPH,Humidity,HourlyPrecipIn,Conditions,Clouds,dailyrainin,SoftwareType,DateUTC
2013-03-24 00:00:00,70.5,70.0,29.85,SW,225,4.0,4.0,98,0.00,,,0.04,meteohub,2013-03-24 04:00:00,
2013-03-24 00:01:00,70.7,70.2,29.84,East,90,2.0,4.0,98,0.00,,,0.04,meteohub,2013-03-24 04:01:00,
2013-03-24 00:03:00,70.7,70.2,29.84,NE,45,2.0,4.0,98,0.00,,,0.04,meteohub,2013-03-24 04:03:00,
2013-03-24 00:06:00,70.7,70.2,29.84,East,90,2.0,4.0,98,0.00,,,0.00,meteohub,2013-03-24 04:06:00,
2013-03-24 00:07:00,70.7,70.2,29.84,SE,135,1.0,4.0,98,0.00,,,0.00,meteohub,2013-03-24 04:07:00,
2013-03-24 00:11:00,70.7,70.2,29.84,NE,45,4.0,4.0,98,0.00,,,0.00,meteohub,2013-03-24 04:11:00,
2013-03-24 00:13:00,70.7,70.2,29.84,South,180,3.0,4.0,98,0.00,,,0.00,meteohub,2013-03-24 04:13:00,
2013-03-24 00:16:00,70.7,70.2,29.83,South,180,2.0,4.0,98,0.00,,,0.00,meteohub,2013-03-24 04:16:00,
2013-03-24 00:18:00,70.7,70.2,29.83,SE,135,2.0,4.0,98,0.00,,,0.00,meteohub,2013-03-24 04:18:00,
2013-03-24 00:19:00,70.7,70.2,29.83,SE,135,4.0,4.0,98,0.00,,,0.00,meteohub,2013-03-24 04:19:00,
2013-03-24 00:22:00,70.9,70.3,29.83,SE,135,2.0,4.0,98,0.00,,,0.00,meteohub,2013-03-24 04:22:00,
2013-03-24 00:23:00,70.9,70.3,29.83,SE,135,2.0,4.0,98,0.00,,,0.00,meteohub,2013-03-24 04:23:00,
2013-03-24 00:27:00,70.9,70.3,29.83,South,180,2.0,4.0,98,0.00,,,0.00,meteohub,2013-03-24 04:27:00,
2013-03-24 00:28:00,70.9,70.3,29.83,East,90,4.0,4.0,98,0.00,,,0.00,meteohub,2013-03-24 04:28:00,
2013-03-24 00:29:00,70.9,70.3,29.83,South,180,3.0,4.0,98,0.00,,,0.00,meteohub,2013-03-24 04:29:00,
2013-03-24 00:32:00,70.9,70.3,29.83,South,180,2.0,4.0,98,0.00,,,0.00,meteohub,2013-03-24 04:32:00,
2013-03-24 00:34:00,70.9,70.3,29.83,SE,135,2.0,4.0,98,0.00,,,0.00,meteohub,2013-03-24 04:34:00,
2013-03-24 00:35:00,70.9,70.3,29.83,NW,315,3.0,4.0,98,0.00,,,0.00,meteohub,2013-03-24 04:35:00,
2013-03-24 00:37:00,70.9,70.3,29.83,SW,225,2.0,4.0,98,0.00,,,0.00,meteohub,2013-03-24 04:37:00,
2013-03-24 00:39:00,70.9,70.3,29.83,North,0,2.0,4.0,98,0.00,,,0.00,meteohub,2013-03-24 04:39:00,
2013-03-24 00:40:00,70.9,70.3,29.83,NE,45,2.0,4.0,98,0.00,,,0.00,meteohub,2013-03-24 04:40:00,
2013-03-24 00:42:00,70.9,70.3,29.83,WNW,293,2.0,4.0,98,0.00,,,0.00,meteohub,2013-03-24 04:42:00,
2013-03-24 00:44:00,70.9,70.3,29.83,NW,315,2.0,4.0,98,0.00,,,0.00,meteohub,2013-03-24 04:44:00,
2013-03-24 00:47:00,70.9,70.3,29.83,SE,135,2.0,4.0,98,0.00,,,0.00,meteohub,2013-03-24 04:47:00,
2013-03-24 00:48:00,70.9,70.3,29.83,SE,135,2.0,4.0,98,0.00,,,0.00,meteohub,2013-03-24 04:48:00,
2013-03-24 00:50:00,70.9,70.3,29.82,SE,135,4.0,4.0,98,0.00,,,0.00,meteohub,2013-03-24 04:50:00,
2013-03-24 00:52:00,70.9,70.3,29.82,South,180,2.0,4.0,98,0.00,,,0.00,meteohub,2013-03-24 04:52:00,
2013-03-24 00:53:00,70.9,70.3,29.82,East,90,2.0,4.0,98,0.00,,,0.00,meteohub,2013-03-24 04:53:00,
2013-03-24 00:55:00,70.9,70.3,29.82,South,180,4.0,4.0,98,0.00,,,0.00,meteohub,2013-03-24 04:55:00,
2013-03-24 00:57:00,70.9,70.3,29.82,SE,135,4.0,4.0,98,0.00,,,0.00,meteohub,2013-03-24 04:57:00,
2013-03-24 00:59:00,70.9,70.3,29.81,SE,135,2.0,4.0,98,0.00,,,0.00,meteohub,2013-03-24 04:59:00,
2013-03-24 01:02:00,70.9,70.3,29.81,South,180,3.0,4.0,98,0.00,,,0.00,meteohub,2013-03-24 05:02:00,
2013-03-24 01:03:00,70.9,70.3,29.82,SE,135,2.0,4.0,98,0.00,,,0.00,meteohub,2013-03-24 05:03:00,
2013-03-24 01:05:00,70.9,70.3,29.82,East,90,2.0,4.0,98,0.00,,,0.00,meteohub,2013-03-24 05:05:00,
2013-03-24 01:08:00,70.9,70.3,29.81,SW,225,2.0,4.0,98,0.00,,,0.00,meteohub,2013-03-24 05:08:00,
2013-03-24 01:09:00,70.9,70.3,29.81,East,90,2.0,4.0,98,0.00,,,0.00,meteohub,2013-03-24 05:09:00,
2013-03-24 01:12:00,70.7,70.2,29.81,SE,135,2.0,4.0,98,0.00,,,0.00,meteohub,2013-03-24 05:12:00,
2013-03-24 01:14:00,70.7,70.2,29.81,SE,135,2.0,4.0,98,0.00,,,0.00,meteohub,2013-03-24 05:14:00,
2013-03-24 01:15:00,70.7,70.2,29.81,SE,135,2.0,4.0,98,0.00,,,0.00,meteohub,2013-03-24 05:15:00,
2013-03-24 01:17:00,70.7,70.2,29.81,SE,135,2.0,4.0,98,0.00,,,0.00,meteohub,2013-03-24 05:17:00,
2013-03-24 01:18:00,70.7,70.2,29.81,East,90,4.0,4.0,98,0.00,,,0.00,meteohub,2013-03-24 05:18:00,
2013-03-24 01:19:00,70.7,70.2,29.81,SE,135,2.0,4.0,98,0.00,,,0.00,meteohub,2013-03-24 05:19:00,
2013-03-24 01:20:00,70.7,70.2,29.81,SE,135,2.0,4.0,98,0.00,,,0.00,meteohub,2013-03-24 05:20:00,
2013-03-24 01:24:00,70.5,70.0,29.81,NE,45,3.0,4.0,98,0.00,,,0.00,meteohub,2013-03-24 05:24:00,
2013-03-24 01:25:00,70.5,70.0,29.81,NE,45,3.0,4.0,98,0.00,,,0.00,meteohub,2013-03-24 05:25:00,
2013-03-24 01:28:00,70.5,70.0,29.81,East,90,2.0,4.0,98,0.00,,,0.00,meteohub,2013-03-24 05:28:00,
2013-03-24 01:30:00,70.5,70.0,29.81,East,90,3.0,4.0,98,0.00,,,0.00,meteohub,2013-03-24 05:30:00,
2013-03-24 01:31:00,70.5,70.0,29.81,SE,135,2.0,4.0,98,0.00,,,0.00,meteohub,2013-03-24 05:31:00,
2013-03-24 01:34:00,70.5,70.0,29.81,WNW,293,1.0,4.0,98,0.00,,,0.00,meteohub,2013-03-24 05:34:00,
2013-03-24 01:36:00,70.5,70.0,29.81,South,180,4.0,4.0,98,0.00,,,0.00,meteohub,2013-03-24 05:36:00,
2013-03-24 01:37:00,70.5,70.0,29.81,NW,315,4.0,4.0,98,0.00,,,0.00,meteohub,2013-03-24 05:37:00,
2013-03-24 01:39:00,70.5,70.0,29.80,North,0,2.0,4.0,98,0.00,,,0.00,meteohub,2013-03-24 05:39:00,
2013-03-24 01:42:00,70.5,70.0,29.81,SE,135,3.0,4.0,98,0.00,,,0.00,meteohub,2013-03-24 05:42:00,
2013-03-24 01:43:00,70.5,70.0,29.80,SE,135,2.0,4.0,98,0.00,,,0.00,meteohub,2013-03-24 05:43:00,
2013-03-24 01:44:00,70.5,70.0,29.80,NE,45,1.0,4.0,98,0.00,,,0.00,meteohub,2013-03-24 05:44:00,
2013-03-24 01:47:00,70.5,70.0,29.80,SE,135,2.0,4.0,98,0.00,,,0.00,meteohub,2013-03-24 05:47:00,
2013-03-24 01:48:00,70.5,70.0,29.80,East,90,3.0,4.0,98,0.00,,,0.00,meteohub,2013-03-24 05:48:00,
2013-03-24 01:50:00,70.5,70.0,29.80,SE,135,3.0,4.0,98,0.00,,,0.00,meteohub,2013-03-24 05:50:00,
2013-03-24 01:52:00,70.3,69.8,29.80,SE,135,2.0,4.0,98,0.00,,,0.00,meteohub,2013-03-24 05:52:00,
2013-03-24 01:54:00,70.3,69.8,29.80,North,0,1.0,4.0,98,0.00,,,0.00,meteohub,2013-03-24 05:54:00,
2013-03-24 01:55:00,70.3,69.8,29.80,East,90,1.0,4.0,98,0.00,,,0.00,meteohub,2013-03-24 05:55:00,
2013-03-24 01:57:00,70.3,69.8,29.79,South,180,2.0,4.0,98,0.00,,,0.00,meteohub,2013-03-24 05:57:00,
2013-03-24 02:02:00,70.3,69.8,29.79,East,90,2.0,3.0,98,0.00,,,0.00,meteohub,2013-03-24 06:02:00,
2013-03-24 02:03:00,70.3,69.8,29.80,SW,225,2.0,3.0,98,0.00,,,0.00,meteohub,2013-03-24 06:03:00,
2013-03-24 02:04:00,70.3,69.8,29.80,East,90,0.0,3.0,98,0.00,,,0.00,meteohub,2013-03-24 06:04:00,
2013-03-24 02:07:00,70.3,69.8,29.80,East,90,1.0,3.0,98,0.00,,,0.00,meteohub,2013-03-24 06:07:00,
2013-03-24 02:08:00,70.3,69.8,29.80,SE,135,2.0,3.0,98,0.00,,,0.00,meteohub,2013-03-24 06:08:00,
2013-03-24 02:10:00,70.3,69.8,29.80,East,90,2.0,3.0,98,0.00,,,0.00,meteohub,2013-03-24 06:10:00,
2013-03-24 02:12:00,70.3,69.8,29.79,SE,135,1.0,3.0,98,0.00,,,0.00,meteohub,2013-03-24 06:12:00,
2013-03-24 02:13:00,70.3,69.8,29.79,SE,135,2.0,3.0,98,0.00,,,0.00,meteohub,2013-03-24 06:13:00,
2013-03-24 02:14:00,70.3,69.8,29.79,SE,135,2.0,3.0,98,0.00,,,0.00,meteohub,2013-03-24 06:14:00,
2013-03-24 02:17:00,70.2,69.6,29.79,SW,225,2.0,3.0,98,0.00,,,0.00,meteohub,2013-03-24 06:17:00,
2013-03-24 02:18:00,70.2,69.6,29.79,SE,135,2.0,3.0,98,0.00,,,0.00,meteohub,2013-03-24 06:18:00,
2013-03-24 02:19:00,70.2,69.6,29.79,SE,135,3.0,3.0,98,0.00,,,0.00,meteohub,2013-03-24 06:19:00,
2013-03-24 02:23:00,70.2,69.6,29.78,SE,135,2.0,3.0,98,0.00,,,0.00,meteohub,2013-03-24 06:23:00,
2013-03-24 02:24:00,70.2,69.6,29.78,NE,45,2.0,3.0,98,0.00,,,0.00,meteohub,2013-03-24 06:24:00,
2013-03-24 02:25:00,70.2,69.6,29.78,East,90,3.0,4.0,98,0.00,,,0.00,meteohub,2013-03-24 06:25:00,
2013-03-24 02:29:00,70.2,69.6,29.78,SW,225,4.0,4.0,98,0.00,,,0.00,meteohub,2013-03-24 06:29:00,
2013-03-24 02:32:00,70.2,69.6,29.78,NE,45,4.0,4.0,98,0.00,,,0.00,meteohub,2013-03-24 06:32:00,
2013-03-24 02:34:00,70.2,69.6,29.78,SW,225,4.0,4.0,98,0.00,,,0.00,meteohub,2013-03-24 06:34:00,
2013-03-24 02:37:00,70.2,69.6,29.78,South,180,3.0,4.0,98,0.00,,,0.00,meteohub,2013-03-24 06:37:00,
2013-03-24 02:39:00,70.2,69.6,29.78,SW,225,7.0,7.0,98,0.00,,,0.00,meteohub,2013-03-24 06:39:00,
2013-03-24 02:42:00,70.2,69.6,29.78,SE,135,4.0,7.0,98,0.00,,,0.00,meteohub,2013-03-24 06:42:00,
2013-03-24 02:45:00,70.2,69.6,29.78,South,180,2.0,7.0,98,0.00,,,0.00,meteohub,2013-03-24 06:45:00,
2013-03-24 02:47:00,70.2,69.6,29.77,SW,225,2.0,7.0,98,0.00,,,0.00,meteohub,2013-03-24 06:47:00,
2013-03-24 02:48:00,70.2,69.6,29.78,South,180,3.0,7.0,98,0.00,,,0.00,meteohub,2013-03-24 06:48:00,
2013-03-24 02:51:00,70.2,69.6,29.77,SW,225,2.0,7.0,98,0.00,,,0.00,meteohub,2013-03-24 06:51:00,
2013-03-24 02:52:00,70.2,69.6,29.77,South,180,2.0,7.0,98,0.00,,,0.00,meteohub,2013-03-24 06:52:00,
2013-03-24 02:54:00,70.2,69.6,29.77,SE,135,5.0,7.0,98,0.00,,,0.00,meteohub,2013-03-24 06:54:00,
2013-03-24 02:57:00,70.2,69.6,29.77,South,180,4.0,7.0,98,0.00,,,0.00,meteohub,2013-03-24 06:57:00,
2013-03-24 02:58:00,70.2,69.6,29.77,NW,315,5.0,7.0,98,0.00,,,0.00,meteohub,2013-03-24 06:58:00,
2013-03-24 03:00:00,70.2,69.6,29.76,South,180,4.0,7.0,98,0.00,,,0.00,meteohub,2013-03-24 07:00:00,
2013-03-24 03:05:00,70.2,69.6,29.76,North,0,3.0,5.0,98,0.00,,,0.00,meteohub,2013-03-24 07:05:00,
2013-03-24 03:06:00,70.2,69.6,29.76,SW,225,2.0,5.0,98,0.00,,,0.00,meteohub,2013-03-24 07:06:00,
2013-03-24 03:07:00,70.2,69.6,29.75,NW,315,3.0,5.0,98,0.00,,,0.00,meteohub,2013-03-24 07:07:00,
2013-03-24 03:12:00,70.2,69.6,29.75,NW,315,2.0,5.0,98,0.00,,,0.00,meteohub,2013-03-24 07:12:00,
2013-03-24 03:14:00,70.2,69.6,29.75,North,0,2.0,5.0,98,0.00,,,0.00,meteohub,2013-03-24 07:14:00,
2013-03-24 03:18:00,70.2,69.6,29.75,NE,45,4.0,4.0,98,0.00,,,0.00,meteohub,2013-03-24 07:18:00,
2013-03-24 03:19:00,70.2,69.6,29.75,SE,135,5.0,5.0,98,0.00,,,0.00,meteohub,2013-03-24 07:19:00,
2013-03-24 03:20:00,70.2,69.6,29.75,SE,135,4.0,7.0,98,0.00,,,0.00,meteohub,2013-03-24 07:20:00,
2013-03-24 03:23:00,70.2,69.6,29.74,SW,225,5.0,7.0,98,0.00,,,0.00,meteohub,2013-03-24 07:23:00,
2013-03-24 03:27:00,70.2,69.6,29.74,South,180,4.0,7.0,98,0.00,,,0.00,meteohub,2013-03-24 07:27:00,
2013-03-24 03:29:00,70.2,69.6,29.74,South,180,4.0,7.0,98,0.00,,,0.00,meteohub,2013-03-24 07:29:00,
2013-03-24 03:32:00,70.2,69.6,29.74,South,180,10.0,10.0,98,0.00,,,0.00,meteohub,2013-03-24 07:32:00,
2013-03-24 03:38:00,70.2,69.6,29.74,SE,135,3.0,10.0,98,0.00,,,0.00,meteohub,2013-03-24 07:38:00,
2013-03-24 03:39:00,70.3,69.8,29.73,NW,315,3.0,10.0,98,0.00,,,0.00,meteohub,2013-03-24 07:39:00,
2013-03-24 03:40:00,70.2,69.6,29.74,South,180,4.0,10.0,98,0.00,,,0.00,meteohub,2013-03-24 07:40:00,
2013-03-24 03:44:00,70.2,69.6,29.74,SW,225,5.0,10.0,98,0.00,,,0.00,meteohub,2013-03-24 07:44:00,
2013-03-24 03:46:00,70.2,69.6,29.74,East,90,8.0,10.0,98,0.00,,,0.00,meteohub,2013-03-24 07:46:00,
2013-03-24 03:50:00,70.3,69.8,29.73,SE,135,4.0,10.0,98,0.00,,,0.00,meteohub,2013-03-24 07:50:00,
2013-03-24 03:51:00,70.3,69.8,29.73,East,90,4.0,8.0,98,0.00,,,0.00,meteohub,2013-03-24 07:51:00,
2013-03-24 03:52:00,70.3,69.8,29.74,North,0,4.0,8.0,98,0.00,,,0.00,meteohub,2013-03-24 07:52:00,
2013-03-24 03:55:00,70.2,69.6,29.73,NW,315,3.0,8.0,98,0.00,,,0.00,meteohub,2013-03-24 07:55:00,
2013-03-24 03:56:00,70.2,69.6,29.73,SE,135,3.0,12.0,98,0.00,,,0.00,meteohub,2013-03-24 07:56:00,
2013-03-24 03:57:00,70.2,69.6,29.74,NW,315,7.0,12.0,98,0.00,,,0.00,meteohub,2013-03-24 07:57:00,
2013-03-24 04:00:00,70.2,69.6,29.73,South,180,4.0,12.0,98,0.00,,,0.00,meteohub,2013-03-24 08:00:00,
2013-03-24 04:02:00,70.2,69.6,29.73,NW,315,7.0,12.0,98,0.00,,,0.00,meteohub,2013-03-24 08:02:00,
2013-03-24 04:04:00,70.2,69.6,29.73,South,180,13.0,13.0,98,0.00,,,0.00,meteohub,2013-03-24 08:04:00,
2013-03-24 04:05:00,70.2,69.6,29.74,WSW,248,6.0,12.0,98,0.00,,,0.00,meteohub,2013-03-24 08:05:00,
2013-03-24 04:07:00,70.2,69.6,29.73,SW,225,8.0,12.0,98,0.00,,,0.00,meteohub,2013-03-24 08:07:00,
2013-03-24 04:10:00,70.2,69.6,29.74,SW,225,8.0,12.0,98,0.00,,,0.00,meteohub,2013-03-24 08:10:00,
2013-03-24 04:11:00,70.2,69.6,29.74,SW,225,4.0,13.0,98,0.00,,,0.00,meteohub,2013-03-24 08:11:00,
2013-03-24 04:12:00,70.3,69.8,29.74,SW,225,11.0,13.0,98,0.00,,,0.00,meteohub,2013-03-24 08:12:00,
2013-03-24 04:13:00,70.3,69.8,29.74,SE,135,11.0,13.0,98,0.00,,,0.00,meteohub,2013-03-24 08:13:00,
2013-03-24 04:15:00,70.3,69.8,29.73,SE,135,5.0,13.0,98,0.00,,,0.00,meteohub,2013-03-24 08:15:00,
2013-03-24 04:16:00,70.3,69.8,29.73,SW,225,8.0,13.0,98,0.00,,,0.00,meteohub,2013-03-24 08:16:00,
2013-03-24 04:17:00,70.3,69.8,29.73,SW,225,8.0,13.0,98,0.00,,,0.00,meteohub,2013-03-24 08:17:00,
2013-03-24 04:18:00,70.3,69.8,29.73,NW,315,3.0,13.0,98,0.00,,,0.00,meteohub,2013-03-24 08:18:00,
2013-03-24 04:21:00,70.5,70.0,29.73,East,90,3.0,11.0,98,0.00,,,0.00,meteohub,2013-03-24 08:21:00,
2013-03-24 04:22:00,70.5,70.0,29.73,West,270,3.0,11.0,98,0.00,,,0.00,meteohub,2013-03-24 08:22:00,
2013-03-24 04:23:00,70.5,70.0,29.73,SE,135,3.0,11.0,98,0.00,,,0.00,meteohub,2013-03-24 08:23:00,
2013-03-24 04:24:00,70.5,70.0,29.73,South,180,8.0,11.0,98,0.00,,,0.00,meteohub,2013-03-24 08:24:00,
2013-03-24 04:28:00,70.5,70.0,29.73,South,180,3.0,11.0,98,0.00,,,0.00,meteohub,2013-03-24 08:28:00,
2013-03-24 04:29:00,70.5,70.0,29.73,West,270,3.0,11.0,98,0.00,,,0.00,meteohub,2013-03-24 08:29:00,
2013-03-24 04:30:00,70.5,70.0,29.73,SE,135,4.0,11.0,98,0.00,,,0.00,meteohub,2013-03-24 08:30:00,
2013-03-24 04:31:00,70.5,70.0,29.73,West,270,7.0,10.0,98,0.00,,,0.00,meteohub,2013-03-24 08:31:00,
2013-03-24 04:34:00,70.7,70.2,29.73,West,270,6.0,10.0,98,0.00,,,0.00,meteohub,2013-03-24 08:34:00,
2013-03-24 04:35:00,70.7,70.2,29.73,SW,225,4.0,10.0,98,0.00,,,0.00,meteohub,2013-03-24 08:35:00,
2013-03-24 04:36:00,70.7,70.2,29.73,SW,225,7.0,10.0,98,0.00,,,0.00,meteohub,2013-03-24 08:36:00,
2013-03-24 04:39:00,70.7,70.2,29.73,SE,135,6.0,10.0,98,0.00,,,0.00,meteohub,2013-03-24 08:39:00,
2013-03-24 04:40:00,70.7,70.2,29.73,SE,135,8.0,10.0,98,0.00,,,0.00,meteohub,2013-03-24 08:40:00,
2013-03-24 04:41:00,70.9,70.3,29.73,North,0,4.0,10.0,98,0.00,,,0.00,meteohub,2013-03-24 08:41:00,
2013-03-24 04:43:00,70.9,70.3,29.73,SW,225,4.0,10.0,98,0.00,,,0.00,meteohub,2013-03-24 08:43:00,
2013-03-24 04:45:00,70.9,70.3,29.73,NW,315,5.0,10.0,98,0.00,,,0.00,meteohub,2013-03-24 08:45:00,
2013-03-24 04:47:00,71.1,70.5,29.73,West,270,7.0,10.0,98,0.00,,,0.00,meteohub,2013-03-24 08:47:00,
2013-03-24 04:48:00,71.1,70.5,29.73,East,90,8.0,10.0,98,0.00,,,0.00,meteohub,2013-03-24 08:48:00,
2013-03-24 04:50:00,71.1,70.5,29.73,NE,45,5.0,10.0,98,0.00,,,0.00,meteohub,2013-03-24 08:50:00,
2013-03-24 04:52:00,71.1,70.5,29.73,East,90,4.0,13.0,98,0.00,,,0.00,meteohub,2013-03-24 08:52:00,
2013-03-24 04:53:00,71.2,70.7,29.73,East,90,6.0,13.0,98,0.00,,,0.00,meteohub,2013-03-24 08:53:00,
2013-03-24 04:54:00,71.2,70.7,29.73,SW,225,8.0,13.0,98,0.00,,,0.00,meteohub,2013-03-24 08:54:00,
2013-03-24 04:57:00,71.2,70.7,29.73,SE,135,7.0,13.0,98,0.00,,,0.00,meteohub,2013-03-24 08:57:00,
2013-03-24 05:00:00,71.2,70.7,29.73,SE,135,14.0,14.0,98,0.00,,,0.00,meteohub,2013-03-24 09:00:00,
2013-03-24 05:02:00,71.2,70.7,29.73,NE,45,8.0,14.0,98,0.00,,,0.00,meteohub,2013-03-24 09:02:00,
2013-03-24 05:06:00,71.2,70.7,29.73,SW,225,6.0,14.0,98,0.00,,,0.00,meteohub,2013-03-24 09:06:00,
2013-03-24 05:07:00,71.4,70.9,29.73,South,180,8.0,14.0,98,0.00,,,0.00,meteohub,2013-03-24 09:07:00,
2013-03-24 05:08:00,71.4,70.9,29.73,SE,135,10.0,14.0,98,0.00,,,0.00,meteohub,2013-03-24 09:08:00,
2013-03-24 05:11:00,71.4,70.9,29.73,SW,225,6.0,14.0,98,0.00,,,0.00,meteohub,2013-03-24 09:11:00,
2013-03-24 05:12:00,71.4,70.9,29.73,SW,225,22.0,22.0,98,0.00,,,0.00,meteohub,2013-03-24 09:12:00,
2013-03-24 05:13:00,71.4,70.9,29.73,SW,225,5.0,14.0,98,0.00,,,0.00,meteohub,2013-03-24 09:13:00,
2013-03-24 05:17:00,71.6,70.3,29.73,SE,135,12.0,22.0,96,0.00,,,0.00,meteohub,2013-03-24 09:17:00,
2013-03-24 05:18:00,71.4,70.5,29.73,NE,45,11.0,22.0,97,0.00,,,0.00,meteohub,2013-03-24 09:18:00,
2013-03-24 05:20:00,71.4,70.5,29.73,SW,225,8.0,22.0,97,0.00,,,0.00,meteohub,2013-03-24 09:20:00,
2013-03-24 05:23:00,71.4,70.5,29.73,SW,225,8.0,22.0,97,0.00,,,0.00,meteohub,2013-03-24 09:23:00,
2013-03-24 05:24:00,71.4,70.5,29.73,SW,225,11.0,22.0,97,0.00,,,0.00,meteohub,2013-03-24 09:24:00,
2013-03-24 05:25:00,71.4,70.2,29.73,East,90,9.0,22.0,96,0.00,,,0.00,meteohub,2013-03-24 09:25:00,
2013-03-24 05:27:00,71.4,70.2,29.73,West,270,8.0,22.0,96,0.00,,,0.00,meteohub,2013-03-24 09:27:00,
2013-03-24 05:30:00,71.2,70.0,29.73,South,180,3.0,22.0,96,0.00,,,0.00,meteohub,2013-03-24 09:30:00,
2013-03-24 05:32:00,71.2,70.0,29.72,South,180,3.0,15.0,96,0.00,,,0.00,meteohub,2013-03-24 09:32:00,
2013-03-24 05:37:00,71.2,70.0,29.72,SE,135,9.0,15.0,96,0.00,,,0.00,meteohub,2013-03-24 09:37:00,
2013-03-24 05:38:00,71.2,70.0,29.72,SW,225,8.0,15.0,96,0.00,,,0.00,meteohub,2013-03-24 09:38:00,
2013-03-24 05:39:00,71.2,70.0,29.72,SW,225,8.0,15.0,96,0.00,,,0.00,meteohub,2013-03-24 09:39:00,
2013-03-24 05:43:00,71.2,70.3,29.73,South,180,12.0,15.0,97,0.00,,,0.00,meteohub,2013-03-24 09:43:00,
2013-03-24 05:44:00,71.2,70.3,29.72,South,180,7.0,15.0,97,0.00,,,0.00,meteohub,2013-03-24 09:44:00,
2013-03-24 05:46:00,71.2,70.3,29.72,South,180,11.0,19.0,97,0.00,,,0.00,meteohub,2013-03-24 09:46:00,
2013-03-24 05:48:00,71.2,70.3,29.72,SE,135,5.0,19.0,97,0.00,,,0.00,meteohub,2013-03-24 09:48:00,
2013-03-24 05:50:00,71.1,70.2,29.72,SE,135,6.0,19.0,97,0.00,,,0.00,meteohub,2013-03-24 09:50:00,
2013-03-24 05:53:00,71.1,70.2,29.72,SW,225,8.0,19.0,97,0.00,,,0.00,meteohub,2013-03-24 09:53:00,
2013-03-24 05:55:00,71.1,70.2,29.72,SW,225,8.0,19.0,97,0.00,,,0.00,meteohub,2013-03-24 09:55:00,
2013-03-24 05:56:00,71.1,70.2,29.72,SW,225,8.0,19.0,97,0.00,,,0.00,meteohub,2013-03-24 09:56:00,
2013-03-24 05:57:00,71.1,70.2,29.72,NW,315,3.0,14.0,97,0.00,,,0.00,meteohub,2013-03-24 09:57:00,
2013-03-24 06:00:00,71.1,70.2,29.72,South,180,4.0,13.0,97,0.00,,,0.00,meteohub,2013-03-24 10:00:00,
2013-03-24 06:02:00,71.1,70.2,29.72,South,180,6.0,13.0,97,0.00,,,0.00,meteohub,2013-03-24 10:02:00,
2013-03-24 06:03:00,71.1,70.2,29.72,East,90,8.0,13.0,97,0.00,,,0.00,meteohub,2013-03-24 10:03:00,
2013-03-24 06:07:00,71.1,70.2,29.72,SE,135,12.0,15.0,97,0.00,,,0.00,meteohub,2013-03-24 10:07:00,
2013-03-24 06:08:00,71.1,70.2,29.71,NE,45,12.0,15.0,97,0.00,,,0.00,meteohub,2013-03-24 10:08:00,
2013-03-24 06:10:00,71.1,70.2,29.71,East,90,9.0,15.0,97,0.00,,,0.00,meteohub,2013-03-24 10:10:00,
2013-03-24 06:13:00,71.1,70.2,29.72,East,90,4.0,15.0,97,0.00,,,0.00,meteohub,2013-03-24 10:13:00,
2013-03-24 06:15:00,71.1,70.2,29.71,SW,225,4.0,15.0,97,0.00,,,0.00,meteohub,2013-03-24 10:15:00,
2013-03-24 06:17:00,70.9,70.0,29.71,North,0,8.0,15.0,97,0.00,,,0.00,meteohub,2013-03-24 10:17:00,
2013-03-24 06:19:00,70.9,70.0,29.71,South,180,15.0,15.0,97,0.00,,,0.00,meteohub,2013-03-24 10:19:00,
2013-03-24 06:20:00,71.1,70.2,29.71,SW,225,11.0,15.0,97,0.00,,,0.00,meteohub,2013-03-24 10:20:00,
2013-03-24 06:21:00,71.1,70.2,29.71,SE,135,9.0,15.0,97,0.00,,,0.00,meteohub,2013-03-24 10:21:00,
2013-03-24 06:25:00,70.9,70.3,29.71,South,180,11.0,15.0,98,0.00,,,0.00,meteohub,2013-03-24 10:25:00,
2013-03-24 06:27:00,70.9,70.3,29.71,West,270,15.0,15.0,98,0.00,,,0.00,meteohub,2013-03-24 10:27:00,
2013-03-24 06:29:00,70.9,70.3,29.71,SW,225,6.0,15.0,98,0.00,,,0.00,meteohub,2013-03-24 10:29:00,
2013-03-24 06:32:00,71.1,70.5,29.71,South,180,8.0,15.0,98,0.00,,,0.00,meteohub,2013-03-24 10:32:00,
2013-03-24 06:34:00,71.1,70.5,29.71,West,270,11.0,15.0,98,0.00,,,0.00,meteohub,2013-03-24 10:34:00,
2013-03-24 06:35:00,71.1,70.5,29.71,SW,225,11.0,15.0,98,0.00,,,0.00,meteohub,2013-03-24 10:35:00,
2013-03-24 06:36:00,71.1,70.5,29.71,West,270,11.0,15.0,98,0.00,,,0.00,meteohub,2013-03-24 10:36:00,
2013-03-24 06:37:00,71.1,70.5,29.72,SW,225,6.0,15.0,98,0.00,,,0.00,meteohub,2013-03-24 10:37:00,
2013-03-24 06:41:00,70.9,70.3,29.71,SW,225,12.0,15.0,98,0.00,,,0.00,meteohub,2013-03-24 10:41:00,
2013-03-24 06:42:00,70.9,70.3,29.71,NW,315,15.0,15.0,98,0.00,,,0.00,meteohub,2013-03-24 10:42:00,
2013-03-24 06:44:00,70.9,70.3,29.72,NE,45,11.0,15.0,98,0.00,,,0.00,meteohub,2013-03-24 10:44:00,
2013-03-24 06:47:00,70.9,70.3,29.71,SW,225,15.0,15.0,98,0.00,,,0.00,meteohub,2013-03-24 10:47:00,
2013-03-24 06:49:00,70.9,70.3,29.72,SE,135,8.0,15.0,98,0.00,,,0.00,meteohub,2013-03-24 10:49:00,
2013-03-24 06:50:00,70.9,70.3,29.72,South,180,11.0,15.0,98,0.00,,,0.00,meteohub,2013-03-24 10:50:00,
2013-03-24 06:52:00,70.7,70.2,29.71,East,90,11.0,15.0,98,0.00,,,0.00,meteohub,2013-03-24 10:52:00,
2013-03-24 06:54:00,70.7,70.2,29.72,NE,45,8.0,15.0,98,0.00,,,0.00,meteohub,2013-03-24 10:54:00,
2013-03-24 06:57:00,70.7,70.2,29.71,WSW,248,9.0,16.0,98,0.00,,,0.00,meteohub,2013-03-24 10:57:00,
2013-03-24 07:00:00,70.7,70.2,29.72,SW,225,15.0,16.0,98,0.00,,,0.00,meteohub,2013-03-24 11:00:00,
2013-03-24 07:01:00,70.7,70.2,29.72,SW,225,8.0,16.0,98,0.00,,,0.00,meteohub,2013-03-24 11:01:00,
2013-03-24 07:02:00,70.7,70.2,29.72,NW,315,11.0,16.0,98,0.00,,,0.00,meteohub,2013-03-24 11:02:00,
2013-03-24 07:03:00,70.7,70.2,29.72,NE,45,8.0,16.0,98,0.00,,,0.00,meteohub,2013-03-24 11:03:00,
2013-03-24 07:07:00,70.5,70.0,29.72,South,180,10.0,15.0,98,0.00,,,0.00,meteohub,2013-03-24 11:07:00,
2013-03-24 07:08:00,70.5,70.0,29.72,NE,45,10.0,15.0,98,0.00,,,0.00,meteohub,2013-03-24 11:08:00,
2013-03-24 07:10:00,70.5,70.0,29.72,South,180,8.0,15.0,98,0.00,,,0.00,meteohub,2013-03-24 11:10:00,
2013-03-24 07:12:00,70.5,70.0,29.72,SW,225,4.0,15.0,98,0.00,,,0.00,meteohub,2013-03-24 11:12:00,
2013-03-24 07:14:00,70.5,70.0,29.72,South,180,9.0,15.0,98,0.00,,,0.00,meteohub,2013-03-24 11:14:00,
2013-03-24 07:15:00,70.5,70.0,29.72,SW,225,7.0,15.0,98,0.00,,,0.00,meteohub,2013-03-24 11:15:00,
2013-03-24 07:17:00,70.3,69.8,29.72,North,0,16.0,16.0,98,0.00,,,0.00,meteohub,2013-03-24 11:17:00,
2013-03-24 07:19:00,70.3,69.8,29.72,South,180,8.0,12.0,98,0.00,,,0.00,meteohub,2013-03-24 11:19:00,
2013-03-24 07:20:00,70.3,69.8,29.72,SW,225,10.0,16.0,98,0.00,,,0.00,meteohub,2013-03-24 11:20:00,
2013-03-24 07:23:00,70.2,69.6,29.72,SW,225,7.0,16.0,98,0.00,,,0.00,meteohub,2013-03-24 11:23:00,
2013-03-24 07:24:00,70.2,69.6,29.72,NW,315,9.0,16.0,98,0.00,,,0.00,meteohub,2013-03-24 11:24:00,
2013-03-24 07:27:00,70.2,69.6,29.72,South,180,12.0,16.0,98,0.00,,,0.00,meteohub,2013-03-24 11:27:00,
2013-03-24 07:29:00,70.2,69.6,29.72,SW,225,11.0,16.0,98,0.00,,,0.00,meteohub,2013-03-24 11:29:00,
2013-03-24 07:30:00,70.2,69.6,29.72,SW,225,9.0,16.0,98,0.00,,,0.00,meteohub,2013-03-24 11:30:00,
2013-03-24 07:32:00,70.0,69.4,29.73,NW,315,11.0,16.0,98,0.00,,,0.00,meteohub,2013-03-24 11:32:00,
2013-03-24 07:34:00,70.0,69.4,29.73,SE,135,5.0,16.0,98,0.00,,,0.00,meteohub,2013-03-24 11:34:00,
2013-03-24 07:37:00,70.0,69.4,29.72,SW,225,8.0,15.0,98,0.00,,,0.00,meteohub,2013-03-24 11:37:00,
2013-03-24 07:40:00,70.0,69.4,29.73,SW,225,8.0,15.0,98,0.00,,,0.00,meteohub,2013-03-24 11:40:00,
2013-03-24 07:42:00,69.8,69.3,29.73,SW,225,9.0,15.0,98,0.00,,,0.00,meteohub,2013-03-24 11:42:00,
2013-03-24 07:43:00,69.8,69.3,29.73,South,180,9.0,15.0,98,0.00,,,0.00,meteohub,2013-03-24 11:43:00,
2013-03-24 07:47:00,69.8,69.3,29.73,SW,225,15.0,15.0,98,0.00,,,0.00,meteohub,2013-03-24 11:47:00,
2013-03-24 07:48:00,69.8,69.3,29.73,South,180,7.0,12.0,98,0.00,,,0.00,meteohub,2013-03-24 11:48:00,
2013-03-24 07:50:00,69.8,69.3,29.73,East,90,10.0,15.0,98,0.00,,,0.00,meteohub,2013-03-24 11:50:00,
2013-03-24 07:52:00,69.8,69.3,29.72,East,90,7.0,15.0,98,0.00,,,0.00,meteohub,2013-03-24 11:52:00,
2013-03-24 07:56:00,69.8,69.3,29.73,South,180,9.0,15.0,98,0.00,,,0.00,meteohub,2013-03-24 11:56:00,
2013-03-24 07:58:00,69.8,69.3,29.72,South,180,11.0,15.0,98,0.00,,,0.00,meteohub,2013-03-24 11:58:00,
2013-03-24 07:59:00,69.8,69.3,29.73,SW,225,10.0,15.0,98,0.00,,,0.00,meteohub,2013-03-24 11:59:00,
2013-03-24 08:02:00,69.8,69.3,29.73,SE,135,11.0,15.0,98,0.00,,,0.00,meteohub,2013-03-24 12:02:00,
2013-03-24 08:03:00,69.8,69.3,29.73,SW,225,9.0,15.0,98,0.00,,,0.00,meteohub,2013-03-24 12:03:00,
2013-03-24 08:04:00,69.8,69.3,29.73,West,270,8.0,15.0,98,0.00,,,0.00,meteohub,2013-03-24 12:04:00,
2013-03-24 08:07:00,69.8,69.3,29.73,South,180,8.0,13.0,98,0.00,,,0.00,meteohub,2013-03-24 12:07:00,
2013-03-24 08:09:00,69.8,69.3,29.73,SW,225,12.0,13.0,98,0.00,,,0.00,meteohub,2013-03-24 12:09:00,
2013-03-24 08:12:00,69.8,69.3,29.73,SE,135,13.0,13.0,98,0.00,,,0.00,meteohub,2013-03-24 12:12:00,
2013-03-24 08:15:00,69.8,69.3,29.73,South,180,14.0,15.0,98,0.00,,,0.00,meteohub,2013-03-24 12:15:00,
2013-03-24 08:16:00,69.8,69.3,29.73,South,180,14.0,15.0,98,0.00,,,0.00,meteohub,2013-03-24 12:16:00,
2013-03-24 08:17:00,69.8,69.3,29.73,SW,225,10.0,15.0,98,0.00,,,0.00,meteohub,2013-03-24 12:17:00,
2013-03-24 08:19:00,69.8,69.3,29.73,South,180,11.0,15.0,98,0.00,,,0.00,meteohub,2013-03-24 12:19:00,
2013-03-24 08:22:00,69.6,69.3,29.73,SW,225,13.0,15.0,99,0.00,,,0.00,meteohub,2013-03-24 12:22:00,
2013-03-24 08:23:00,69.6,69.3,29.73,South,180,10.0,15.0,99,0.00,,,0.00,meteohub,2013-03-24 12:23:00,
2013-03-24 08:24:00,69.6,69.3,29.72,South,180,9.0,15.0,99,0.00,,,0.00,meteohub,2013-03-24 12:24:00,
2013-03-24 08:25:00,69.6,69.3,29.73,SE,135,10.0,15.0,99,0.00,,,0.00,meteohub,2013-03-24 12:25:00,
2013-03-24 08:27:00,69.6,69.3,29.73,South,180,12.0,15.0,99,0.00,,,0.00,meteohub,2013-03-24 12:27:00,
2013-03-24 08:29:00,69.6,69.3,29.72,SE,135,10.0,15.0,99,0.00,,,0.00,meteohub,2013-03-24 12:29:00,
2013-03-24 08:30:00,69.6,69.3,29.72,SE,135,10.0,15.0,99,0.00,,,0.00,meteohub,2013-03-24 12:30:00,
2013-03-24 08:33:00,69.6,69.3,29.73,NW,315,8.0,15.0,99,0.00,,,0.00,meteohub,2013-03-24 12:33:00,
2013-03-24 08:35:00,69.8,69.3,29.73,SW,225,13.0,15.0,98,0.00,,,0.00,meteohub,2013-03-24 12:35:00,
2013-03-24 08:38:00,69.8,69.3,29.73,South,180,10.0,14.0,98,0.00,,,0.00,meteohub,2013-03-24 12:38:00,
2013-03-24 08:40:00,69.8,69.3,29.74,South,180,12.0,14.0,98,0.00,,,0.00,meteohub,2013-03-24 12:40:00,
2013-03-24 08:43:00,69.8,69.3,29.73,South,180,5.0,14.0,98,0.00,,,0.00,meteohub,2013-03-24 12:43:00,
2013-03-24 08:45:00,69.8,69.3,29.74,SW,225,14.0,14.0,98,0.00,,,0.00,meteohub,2013-03-24 12:45:00,
2013-03-24 08:46:00,69.8,69.3,29.73,South,180,8.0,14.0,98,0.00,,,0.00,meteohub,2013-03-24 12:46:00,
2013-03-24 08:48:00,69.8,69.3,29.74,SW,225,13.0,14.0,98,0.00,,,0.00,meteohub,2013-03-24 12:48:00,
2013-03-24 08:50:00,69.8,69.3,29.74,East,90,8.0,14.0,98,0.00,,,0.00,meteohub,2013-03-24 12:50:00,
2013-03-24 08:51:00,69.8,69.3,29.73,SW,225,12.0,14.0,98,0.00,,,0.00,meteohub,2013-03-24 12:51:00,
2013-03-24 08:52:00,69.8,69.3,29.74,SW,225,7.0,14.0,98,0.00,,,0.00,meteohub,2013-03-24 12:52:00,
2013-03-24 08:56:00,69.6,69.3,29.74,West,270,11.0,14.0,99,0.00,,,0.00,meteohub,2013-03-24 12:56:00,
2013-03-24 08:57:00,69.6,69.3,29.74,SE,135,9.0,14.0,99,0.00,,,0.00,meteohub,2013-03-24 12:57:00,
2013-03-24 08:58:00,69.6,69.3,29.74,SE,135,9.0,14.0,99,0.00,,,0.00,meteohub,2013-03-24 12:58:00,
2013-03-24 09:02:00,69.6,69.3,29.74,NE,45,12.0,15.0,99,0.00,,,0.00,meteohub,2013-03-24 13:02:00,
2013-03-24 09:03:00,69.6,69.3,29.74,SW,225,8.0,15.0,99,0.00,,,0.00,meteohub,2013-03-24 13:03:00,
2013-03-24 09:04:00,69.6,69.3,29.75,SW,225,8.0,15.0,99,0.00,,,0.00,meteohub,2013-03-24 13:04:00,
2013-03-24 09:07:00,69.6,69.3,29.75,South,180,6.0,15.0,99,0.00,,,0.00,meteohub,2013-03-24 13:07:00,
2013-03-24 09:09:00,69.6,69.3,29.75,SE,135,7.0,15.0,99,0.00,,,0.00,meteohub,2013-03-24 13:09:00,
2013-03-24 09:10:00,69.6,69.3,29.75,SW,225,10.0,12.0,99,0.00,,,0.00,meteohub,2013-03-24 13:10:00,
2013-03-24 09:12:00,69.6,69.3,29.76,SW,225,9.0,12.0,99,0.00,,,0.00,meteohub,2013-03-24 13:12:00,
2013-03-24 09:15:00,69.8,69.3,29.76,West,270,6.0,12.0,98,0.00,,,0.00,meteohub,2013-03-24 13:15:00,
2013-03-24 09:16:00,69.8,69.3,29.76,North,0,9.0,12.0,98,0.00,,,0.00,meteohub,2013-03-24 13:16:00,
2013-03-24 09:17:00,69.8,69.3,29.76,SW,225,10.0,12.0,98,0.00,,,0.00,meteohub,2013-03-24 13:17:00,
2013-03-24 09:19:00,69.8,69.3,29.76,South,180,8.0,12.0,98,0.00,,,0.00,meteohub,2013-03-24 13:19:00,
2013-03-24 09:20:00,69.8,69.3,29.76,SW,225,10.0,11.0,98,0.00,,,0.00,meteohub,2013-03-24 13:20:00,
2013-03-24 09:21:00,69.8,69.3,29.76,SW,225,7.0,11.0,98,0.00,,,0.00,meteohub,2013-03-24 13:21:00,
2013-03-24 09:22:00,69.8,69.3,29.77,South,180,4.0,11.0,98,0.00,,,0.00,meteohub,2013-03-24 13:22:00,
2013-03-24 09:26:00,69.8,69.3,29.77,NNW,338,7.0,10.0,98,0.00,,,0.00,meteohub,2013-03-24 13:26:00,
2013-03-24 09:31:00,69.8,69.3,29.77,South,180,8.0,14.0,98,0.00,,,0.00,meteohub,2013-03-24 13:31:00,
2013-03-24 09:32:00,69.8,69.3,29.76,SW,225,8.0,14.0,98,0.00,,,0.00,meteohub,2013-03-24 13:32:00,
2013-03-24 09:36:00,69.8,69.3,29.77,South,180,8.0,14.0,98,0.00,,,0.00,meteohub,2013-03-24 13:36:00,
2013-03-24 09:37:00,69.8,69.3,29.77,SE,135,7.0,14.0,98,0.00,,,0.00,meteohub,2013-03-24 13:37:00,
2013-03-24 09:38:00,69.6,69.3,29.77,South,180,8.0,14.0,99,0.00,,,0.00,meteohub,2013-03-24 13:38:00,
2013-03-24 09:42:00,69.6,69.3,29.77,South,180,8.0,9.0,99,0.00,,,0.00,meteohub,2013-03-24 13:42:00,
2013-03-24 09:44:00,69.6,69.3,29.78,South,180,5.0,9.0,99,0.00,,,0.00,meteohub,2013-03-24 13:44:00,
2013-03-24 09:45:00,69.6,69.3,29.78,South,180,5.0,9.0,99,0.00,,,0.00,meteohub,2013-03-24 13:45:00,
2013-03-24 09:47:00,69.4,69.1,29.77,SW,225,8.0,9.0,99,0.00,,,0.00,meteohub,2013-03-24 13:47:00,
2013-03-24 09:48:00,69.4,69.1,29.78,West,270,7.0,9.0,99,0.00,,,0.00,meteohub,2013-03-24 13:48:00,
2013-03-24 09:50:00,69.4,69.1,29.78,SW,225,7.0,11.0,99,0.00,,,0.00,meteohub,2013-03-24 13:50:00,
2013-03-24 09:51:00,69.4,69.1,29.78,South,180,8.0,11.0,99,0.00,,,0.00,meteohub,2013-03-24 13:51:00,
2013-03-24 09:54:00,69.4,69.1,29.78,SE,135,7.0,11.0,99,0.00,,,0.00,meteohub,2013-03-24 13:54:00,
2013-03-24 09:56:00,69.4,69.1,29.78,SW,225,6.0,11.0,99,0.00,,,0.00,meteohub,2013-03-24 13:56:00,
2013-03-24 10:00:00,69.3,68.9,29.79,SW,225,7.0,11.0,99,0.00,,,0.00,meteohub,2013-03-24 14:00:00,
2013-03-24 10:01:00,69.3,68.9,29.79,SW,225,8.0,11.0,99,0.00,,,0.00,meteohub,2013-03-24 14:01:00,
2013-03-24 10:05:00,69.3,68.9,29.78,SW,225,5.0,11.0,99,0.00,,,0.00,meteohub,2013-03-24 14:05:00,
2013-03-24 10:06:00,69.3,68.9,29.78,SW,225,7.0,11.0,99,0.00,,,0.00,meteohub,2013-03-24 14:06:00,
2013-03-24 10:07:00,69.3,68.9,29.78,SW,225,6.0,11.0,99,0.00,,,0.00,meteohub,2013-03-24 14:07:00,
2013-03-24 10:12:00,69.3,68.9,29.79,SE,135,3.0,9.0,99,0.00,,,0.00,meteohub,2013-03-24 14:12:00,
2013-03-24 10:13:00,69.3,68.9,29.78,SW,225,8.0,9.0,99,0.00,,,0.00,meteohub,2013-03-24 14:13:00,
2013-03-24 10:14:00,69.3,68.9,29.79,SW,225,7.0,9.0,99,0.00,,,0.00,meteohub,2013-03-24 14:14:00,
2013-03-24 10:17:00,69.3,68.9,29.79,SW,225,7.0,9.0,99,0.00,,,0.00,meteohub,2013-03-24 14:17:00,
2013-03-24 10:18:00,69.3,68.9,29.79,SW,225,6.0,9.0,99,0.00,,,0.00,meteohub,2013-03-24 14:18:00,
2013-03-24 10:19:00,69.3,68.9,29.78,SW,225,7.0,9.0,99,0.00,,,0.00,meteohub,2013-03-24 14:19:00,
2013-03-24 10:22:00,69.3,68.9,29.79,SW,225,6.0,8.0,99,0.00,,,0.00,meteohub,2013-03-24 14:22:00,
2013-03-24 10:25:00,69.3,68.9,29.78,SW,225,6.0,8.0,99,0.00,,,0.00,meteohub,2013-03-24 14:25:00,
2013-03-24 10:27:00,69.3,68.9,29.78,NE,45,4.0,9.0,99,0.00,,,0.00,meteohub,2013-03-24 14:27:00,
2013-03-24 10:29:00,69.4,69.1,29.78,SW,225,5.0,9.0,99,0.00,,,0.00,meteohub,2013-03-24 14:29:00,
2013-03-24 10:30:00,69.4,69.1,29.78,South,180,7.0,9.0,99,0.00,,,0.00,meteohub,2013-03-24 14:30:00,
2013-03-24 10:32:00,69.6,69.3,29.79,NW,315,4.0,9.0,99,0.00,,,0.00,meteohub,2013-03-24 14:32:00,
2013-03-24 10:34:00,69.6,69.3,29.79,West,270,4.0,9.0,99,0.00,,,0.00,meteohub,2013-03-24 14:34:00,
2013-03-24 10:35:00,69.6,69.3,29.79,West,270,4.0,9.0,99,0.00,,,0.00,meteohub,2013-03-24 14:35:00,
2013-03-24 10:38:00,69.6,69.3,29.79,SW,225,8.0,9.0,99,0.00,,,0.00,meteohub,2013-03-24 14:38:00,
2013-03-24 10:39:00,69.6,69.3,29.79,South,180,7.0,9.0,99,0.00,,,0.00,meteohub,2013-03-24 14:39:00,
2013-03-24 10:40:00,69.6,69.3,29.79,South,180,7.0,9.0,99,0.00,,,0.00,meteohub,2013-03-24 14:40:00,
2013-03-24 10:42:00,69.8,69.3,29.79,SW,225,6.0,9.0,98,0.00,,,0.00,meteohub,2013-03-24 14:42:00,
2013-03-24 10:44:00,69.8,69.3,29.79,North,0,11.0,11.0,98,0.00,,,0.00,meteohub,2013-03-24 14:44:00,
2013-03-24 10:45:00,69.8,69.3,29.80,SW,225,7.0,9.0,98,0.00,,,0.00,meteohub,2013-03-24 14:45:00,
2013-03-24 10:46:00,69.8,69.3,29.80,SW,225,8.0,8.0,98,0.00,,,0.00,meteohub,2013-03-24 14:46:00,
2013-03-24 10:48:00,69.8,69.3,29.80,South,180,11.0,11.0,98,0.00,,,0.00,meteohub,2013-03-24 14:48:00,
2013-03-24 10:50:00,69.8,69.3,29.80,SW,225,9.0,11.0,98,0.00,,,0.00,meteohub,2013-03-24 14:50:00,
2013-03-24 10:51:00,69.8,69.3,29.80,SW,225,9.0,11.0,98,0.00,,,0.00,meteohub,2013-03-24 14:51:00,
2013-03-24 10:53:00,69.8,69.3,29.79,South,180,8.0,11.0,98,0.00,,,0.00,meteohub,2013-03-24 14:53:00,
2013-03-24 10:56:00,70.0,69.4,29.79,South,180,6.0,11.0,98,0.00,,,0.00,meteohub,2013-03-24 14:56:00,
2013-03-24 10:57:00,70.0,69.4,29.79,South,180,6.0,11.0,98,0.00,,,0.00,meteohub,2013-03-24 14:57:00,
2013-03-24 11:00:00,70.2,69.6,29.79,South,180,6.0,11.0,98,0.00,,,0.00,meteohub,2013-03-24 15:00:00,
2013-03-24 11:02:00,70.2,69.6,29.79,South,180,5.0,11.0,98,0.00,,,0.00,meteohub,2013-03-24 15:02:00,
2013-03-24 11:03:00,70.2,69.6,29.79,SW,225,11.0,11.0,98,0.00,,,0.00,meteohub,2013-03-24 15:03:00,
2013-03-24 11:05:00,70.2,69.6,29.79,SW,225,8.0,11.0,98,0.00,,,0.00,meteohub,2013-03-24 15:05:00,
2013-03-24 11:07:00,70.2,69.6,29.79,SW,225,8.0,11.0,98,0.00,,,0.00,meteohub,2013-03-24 15:07:00,
2013-03-24 11:09:00,70.3,69.8,29.79,South,180,7.0,11.0,98,0.00,,,0.00,meteohub,2013-03-24 15:09:00,
2013-03-24 11:11:00,70.3,69.8,29.79,South,180,8.0,11.0,98,0.00,,,0.00,meteohub,2013-03-24 15:11:00,
2013-03-24 11:12:00,70.3,69.8,29.80,South,180,8.0,11.0,98,0.00,,,0.00,meteohub,2013-03-24 15:12:00,
2013-03-24 11:14:00,70.2,69.6,29.79,West,270,7.0,11.0,98,0.00,,,0.00,meteohub,2013-03-24 15:14:00,
2013-03-24 11:17:00,70.3,69.8,29.79,South,180,6.0,11.0,98,0.00,,,0.00,meteohub,2013-03-24 15:17:00,
2013-03-24 11:18:00,70.3,69.8,29.79,SW,225,4.0,11.0,98,0.00,,,0.00,meteohub,2013-03-24 15:18:00,
2013-03-24 11:19:00,70.3,69.8,29.79,WSW,248,8.0,11.0,98,0.00,,,0.00,meteohub,2013-03-24 15:19:00,
2013-03-24 11:22:00,70.3,69.8,29.78,South,180,10.0,14.0,98,0.00,,,0.00,meteohub,2013-03-24 15:22:00,
2013-03-24 11:25:00,70.5,70.0,29.78,South,180,7.0,14.0,98,0.00,,,0.00,meteohub,2013-03-24 15:25:00,
2013-03-24 11:26:00,70.7,70.2,29.78,NW,315,7.0,14.0,98,0.00,,,0.00,meteohub,2013-03-24 15:26:00,
2013-03-24 11:27:00,70.7,70.2,29.77,South,180,10.0,14.0,98,0.00,,,0.00,meteohub,2013-03-24 15:27:00,
2013-03-24 11:30:00,70.9,70.3,29.77,SW,225,11.0,14.0,98,0.00,,,0.00,meteohub,2013-03-24 15:30:00,
2013-03-24 11:32:00,70.9,70.3,29.77,SW,225,11.0,14.0,98,0.00,,,0.00,meteohub,2013-03-24 15:32:00,
2013-03-24 11:35:00,71.1,70.5,29.77,SE,135,9.0,13.0,98,0.00,,,0.00,meteohub,2013-03-24 15:35:00,
2013-03-24 11:36:00,71.1,70.5,29.77,SE,135,9.0,13.0,98,0.00,,,0.00,meteohub,2013-03-24 15:36:00,
2013-03-24 11:38:00,71.4,70.9,29.78,SW,225,7.0,13.0,98,0.00,,,0.00,meteohub,2013-03-24 15:38:00,
2013-03-24 11:39:00,71.6,70.7,29.77,SW,225,8.0,13.0,97,0.00,,,0.00,meteohub,2013-03-24 15:39:00,
2013-03-24 11:42:00,71.8,70.9,29.77,South,180,12.0,13.0,97,0.00,,,0.00,meteohub,2013-03-24 15:42:00,
2013-03-24 11:44:00,71.8,70.9,29.77,SW,225,16.0,16.0,97,0.00,,,0.00,meteohub,2013-03-24 15:44:00,
2013-03-24 11:47:00,72.0,71.1,29.77,SW,225,11.0,14.0,97,0.00,,,0.00,meteohub,2013-03-24 15:47:00,
2013-03-24 11:49:00,72.3,71.4,29.77,WSW,248,14.0,14.0,97,0.00,,,0.00,meteohub,2013-03-24 15:49:00,
2013-03-24 11:52:00,72.5,71.6,29.76,South,180,8.0,17.0,97,0.00,,,0.00,meteohub,2013-03-24 15:52:00,
2013-03-24 11:53:00,72.5,71.6,29.76,South,180,8.0,17.0,97,0.00,,,0.00,meteohub,2013-03-24 15:53:00,
2013-03-24 11:54:00,72.5,71.6,29.76,South,180,9.0,17.0,97,0.00,,,0.00,meteohub,2013-03-24 15:54:00,
2013-03-24 11:57:00,72.7,71.8,29.77,SE,135,4.0,17.0,97,0.00,,,0.00,meteohub,2013-03-24 15:57:00,
2013-03-24 11:58:00,72.7,71.8,29.77,NW,315,11.0,17.0,97,0.00,,,0.00,meteohub,2013-03-24 15:58:00,
2013-03-24 11:59:00,72.9,72.0,29.77,South,180,12.0,17.0,97,0.00,,,0.00,meteohub,2013-03-24 15:59:00,
2013-03-24 12:02:00,72.9,72.0,29.77,South,180,4.0,17.0,97,0.00,,,0.00,meteohub,2013-03-24 16:02:00,
2013-03-24 12:03:00,73.0,72.1,29.77,NE,45,7.0,17.0,97,0.00,,,0.00,meteohub,2013-03-24 16:03:00,
2013-03-24 12:05:00,73.0,72.1,29.78,SW,225,5.0,17.0,97,0.00,,,0.00,meteohub,2013-03-24 16:05:00,
2013-03-24 12:07:00,73.2,72.3,29.77,NW,315,6.0,12.0,97,0.00,,,0.00,meteohub,2013-03-24 16:07:00,
2013-03-24 12:08:00,73.4,72.9,29.78,South,180,8.0,12.0,98,0.00,,,0.00,meteohub,2013-03-24 16:08:00,
2013-03-24 12:10:00,73.6,72.7,29.78,SE,135,8.0,12.0,97,0.00,,,0.00,meteohub,2013-03-24 16:10:00,
2013-03-24 12:12:00,73.8,72.9,29.78,South,180,8.0,12.0,97,0.00,,,0.00,meteohub,2013-03-24 16:12:00,
2013-03-24 12:14:00,74.1,72.9,29.78,SW,225,8.0,12.0,96,0.00,,,0.00,meteohub,2013-03-24 16:14:00,
2013-03-24 12:15:00,74.1,72.9,29.78,SW,225,8.0,12.0,96,0.00,,,0.00,meteohub,2013-03-24 16:15:00,
2013-03-24 12:17:00,74.3,72.9,29.78,SW,225,9.0,13.0,95,0.00,,,0.00,meteohub,2013-03-24 16:17:00,
2013-03-24 12:18:00,74.3,72.9,29.78,SW,225,6.0,13.0,95,0.00,,,0.00,meteohub,2013-03-24 16:18:00,
2013-03-24 12:19:00,74.5,73.0,29.78,SW,225,12.0,13.0,95,0.00,,,0.00,meteohub,2013-03-24 16:19:00,
2013-03-24 12:21:00,74.5,72.7,29.78,SW,225,8.0,13.0,94,0.00,,,0.00,meteohub,2013-03-24 16:21:00,
2013-03-24 12:23:00,74.3,72.1,29.78,SW,225,6.0,13.0,93,0.00,,,0.00,meteohub,2013-03-24 16:23:00,
2013-03-24 12:28:00,73.8,71.6,29.78,East,90,9.0,14.0,93,0.00,,,0.00,meteohub,2013-03-24 16:28:00,
2013-03-24 12:29:00,73.6,71.4,29.78,SW,225,11.0,14.0,93,0.00,,,0.00,meteohub,2013-03-24 16:29:00,
2013-03-24 12:32:00,73.6,71.8,29.77,South,180,10.0,14.0,94,0.00,,,0.00,meteohub,2013-03-24 16:32:00,
2013-03-24 12:33:00,73.6,71.8,29.77,South,180,9.0,14.0,94,0.00,,,0.00,meteohub,2013-03-24 16:33:00,
2013-03-24 12:34:00,73.6,71.8,29.77,SW,225,11.0,14.0,94,0.00,,,0.00,meteohub,2013-03-24 16:34:00,
2013-03-24 12:35:00,73.4,71.6,29.77,South,180,13.0,14.0,94,0.00,,,0.00,meteohub,2013-03-24 16:35:00,
2013-03-24 12:38:00,73.4,71.6,29.77,SW,225,5.0,14.0,94,0.00,,,0.00,meteohub,2013-03-24 16:38:00,
2013-03-24 12:39:00,73.6,71.8,29.77,South,180,6.0,14.0,94,0.00,,,0.00,meteohub,2013-03-24 16:39:00,
2013-03-24 12:40:00,73.6,71.8,29.77,South,180,6.0,14.0,94,0.00,,,0.00,meteohub,2013-03-24 16:40:00,
2013-03-24 12:41:00,73.6,71.8,29.77,SW,225,11.0,14.0,94,0.00,,,0.00,meteohub,2013-03-24 16:41:00,
2013-03-24 12:44:00,73.4,71.6,29.77,South,180,11.0,14.0,94,0.00,,,0.00,meteohub,2013-03-24 16:44:00,
2013-03-24 12:47:00,73.2,71.1,29.77,West,270,4.0,13.0,93,0.00,,,0.00,meteohub,2013-03-24 16:47:00,
2013-03-24 12:48:00,73.2,71.1,29.77,SW,225,6.0,13.0,93,0.00,,,0.00,meteohub,2013-03-24 16:48:00,
2013-03-24 12:51:00,73.4,71.6,29.76,SE,135,21.0,21.0,94,0.00,,,0.00,meteohub,2013-03-24 16:51:00,
2013-03-24 12:52:00,73.4,71.6,29.75,South,180,10.0,13.0,94,0.00,,,0.00,meteohub,2013-03-24 16:52:00,
2013-03-24 12:53:00,73.4,71.6,29.75,South,180,10.0,13.0,94,0.00,,,0.00,meteohub,2013-03-24 16:53:00,
2013-03-24 12:55:00,73.4,71.6,29.76,SW,225,12.0,13.0,94,0.00,,,0.00,meteohub,2013-03-24 16:55:00,
2013-03-24 12:56:00,73.4,71.6,29.76,South,180,8.0,21.0,94,0.00,,,0.00,meteohub,2013-03-24 16:56:00,
2013-03-24 12:57:00,73.6,71.8,29.75,SW,225,10.0,21.0,94,0.00,,,0.00,meteohub,2013-03-24 16:57:00,
2013-03-24 12:58:00,73.8,72.0,29.75,SW,225,7.0,21.0,94,0.00,,,0.00,meteohub,2013-03-24 16:58:00,
2013-03-24 13:02:00,74.3,72.1,29.75,South,180,11.0,21.0,93,0.00,,,0.00,meteohub,2013-03-24 17:02:00,
2013-03-24 13:03:00,74.5,72.3,29.75,South,180,6.0,21.0,93,0.00,,,0.00,meteohub,2013-03-24 17:03:00,
2013-03-24 13:04:00,74.7,72.5,29.75,SW,225,11.0,21.0,93,0.00,,,0.00,meteohub,2013-03-24 17:04:00,
2013-03-24 13:06:00,74.8,72.3,29.75,South,180,8.0,21.0,92,0.00,,,0.00,meteohub,2013-03-24 17:06:00,
2013-03-24 13:07:00,74.8,72.3,29.75,WSW,248,9.0,21.0,92,0.00,,,0.00,meteohub,2013-03-24 17:07:00,
2013-03-24 13:10:00,74.8,72.0,29.74,South,180,14.0,21.0,91,0.00,,,0.00,meteohub,2013-03-24 17:10:00,
2013-03-24 13:11:00,75.0,72.1,29.74,NW,315,15.0,15.0,91,0.00,,,0.00,meteohub,2013-03-24 17:11:00,
2013-03-24 13:16:00,74.8,72.0,29.73,South,180,8.0,15.0,91,0.00,,,0.00,meteohub,2013-03-24 17:16:00,
2013-03-24 13:17:00,74.8,72.0,29.73,East,90,8.0,15.0,91,0.00,,,0.00,meteohub,2013-03-24 17:17:00,
2013-03-24 13:20:00,75.0,72.5,29.73,SW,225,9.0,15.0,92,0.00,,,0.00,meteohub,2013-03-24 17:20:00,
2013-03-24 13:22:00,75.2,72.1,29.73,SW,225,8.0,15.0,90,0.00,,,0.00,meteohub,2013-03-24 17:22:00,
2013-03-24 13:26:00,75.0,72.1,29.73,SW,225,10.0,15.0,91,0.00,,,0.00,meteohub,2013-03-24 17:26:00,
2013-03-24 13:27:00,74.8,72.0,29.74,South,180,9.0,15.0,91,0.00,,,0.00,meteohub,2013-03-24 17:27:00,
2013-03-24 13:28:00,74.8,72.0,29.74,South,180,9.0,15.0,91,0.00,,,0.00,meteohub,2013-03-24 17:28:00,
2013-03-24 13:31:00,74.5,71.6,29.73,WSW,248,7.0,11.0,91,0.00,,,0.00,meteohub,2013-03-24 17:31:00,
2013-03-24 13:33:00,74.3,71.4,29.73,SW,225,10.0,11.0,91,0.00,,,0.00,meteohub,2013-03-24 17:33:00,
2013-03-24 13:34:00,74.1,71.2,29.73,SW,225,9.0,11.0,91,0.00,,,0.00,meteohub,2013-03-24 17:34:00,
2013-03-24 13:37:00,73.9,71.4,29.73,SE,135,11.0,12.0,92,0.00,,,0.00,meteohub,2013-03-24 17:37:00,
2013-03-24 13:38:00,73.8,71.2,29.72,NW,315,11.0,12.0,92,0.00,,,0.00,meteohub,2013-03-24 17:38:00,
2013-03-24 13:39:00,73.8,71.2,29.72,NW,315,11.0,12.0,92,0.00,,,0.00,meteohub,2013-03-24 17:39:00,
2013-03-24 13:44:00,73.4,71.2,29.72,East,90,13.0,13.0,93,0.00,,,0.00,meteohub,2013-03-24 17:44:00,
2013-03-24 13:45:00,73.4,71.2,29.72,East,90,13.0,13.0,93,0.00,,,0.00,meteohub,2013-03-24 17:45:00,
2013-03-24 13:46:00,73.2,70.7,29.71,SW,225,9.0,12.0,92,0.00,,,0.00,meteohub,2013-03-24 17:46:00,
2013-03-24 13:49:00,73.2,70.7,29.72,South,180,14.0,14.0,92,0.00,,,0.00,meteohub,2013-03-24 17:49:00,
2013-03-24 13:50:00,73.2,70.7,29.72,South,180,15.0,15.0,92,0.00,,,0.00,meteohub,2013-03-24 17:50:00,
2013-03-24 13:51:00,73.2,70.7,29.72,NW,315,15.0,15.0,92,0.00,,,0.00,meteohub,2013-03-24 17:51:00,
2013-03-24 13:55:00,73.2,71.1,29.72,NW,315,12.0,14.0,93,0.00,,,0.00,meteohub,2013-03-24 17:55:00,
2013-03-24 13:57:00,73.2,71.1,29.72,SW,225,7.0,15.0,93,0.00,,,0.00,meteohub,2013-03-24 17:57:00,
2013-03-24 13:58:00,73.2,71.1,29.73,SW,225,12.0,15.0,93,0.00,,,0.00,meteohub,2013-03-24 17:58:00,
2013-03-24 14:02:00,72.9,70.7,29.72,SW,225,8.0,15.0,93,0.00,,,0.00,meteohub,2013-03-24 18:02:00,
2013-03-24 14:03:00,72.9,70.7,29.72,NNE,23,18.0,18.0,93,0.00,,,0.00,meteohub,2013-03-24 18:03:00,
2013-03-24 14:05:00,72.9,70.7,29.72,South,180,17.0,17.0,93,0.00,,,0.00,meteohub,2013-03-24 18:05:00,
2013-03-24 14:09:00,72.9,70.7,29.71,SW,225,11.0,18.0,93,0.00,,,0.00,meteohub,2013-03-24 18:09:00,
2013-03-24 14:10:00,72.9,70.7,29.71,SW,225,9.0,18.0,93,0.00,,,0.00,meteohub,2013-03-24 18:10:00,
2013-03-24 14:11:00,72.9,70.7,29.71,SW,225,8.0,18.0,93,0.00,,,0.00,meteohub,2013-03-24 18:11:00,
2013-03-24 14:15:00,72.7,70.5,29.71,South,180,16.0,18.0,93,0.00,,,0.00,meteohub,2013-03-24 18:15:00,
2013-03-24 14:16:00,72.7,70.5,29.71,South,180,16.0,18.0,93,0.00,,,0.00,meteohub,2013-03-24 18:16:00,
2013-03-24 14:17:00,72.7,70.5,29.71,SE,135,11.0,18.0,93,0.00,,,0.00,meteohub,2013-03-24 18:17:00,
2013-03-24 14:19:00,72.5,70.3,29.71,SW,225,9.0,18.0,93,0.00,,,0.00,meteohub,2013-03-24 18:19:00,
2013-03-24 14:22:00,72.3,70.5,29.71,South,180,9.0,17.0,94,0.00,,,0.00,meteohub,2013-03-24 18:22:00,
2013-03-24 14:23:00,72.3,70.5,29.71,NW,315,11.0,17.0,94,0.00,,,0.00,meteohub,2013-03-24 18:23:00,
2013-03-24 14:25:00,72.3,70.5,29.71,South,180,10.0,17.0,94,0.00,,,0.00,meteohub,2013-03-24 18:25:00,
2013-03-24 14:27:00,72.3,70.5,29.71,SW,225,15.0,17.0,94,0.00,,,0.00,meteohub,2013-03-24 18:27:00,
2013-03-24 14:29:00,72.3,70.5,29.70,South,180,10.0,17.0,94,0.00,,,0.00,meteohub,2013-03-24 18:29:00,
2013-03-24 14:30:00,72.3,70.5,29.70,SW,225,11.0,17.0,94,0.00,,,0.00,meteohub,2013-03-24 18:30:00,
2013-03-24 14:31:00,72.3,70.5,29.70,SW,225,11.0,17.0,94,0.00,,,0.00,meteohub,2013-03-24 18:31:00,
2013-03-24 14:36:00,72.7,70.9,29.70,SW,225,10.0,15.0,94,0.00,,,0.00,meteohub,2013-03-24 18:36:00,
2013-03-24 14:37:00,72.7,70.9,29.70,SW,225,10.0,15.0,94,0.00,,,0.00,meteohub,2013-03-24 18:37:00,
2013-03-24 14:39:00,72.5,70.7,29.70,South,180,11.0,15.0,94,0.00,,,0.00,meteohub,2013-03-24 18:39:00,
2013-03-24 14:42:00,72.3,70.5,29.70,South,180,15.0,15.0,94,0.00,,,0.00,meteohub,2013-03-24 18:42:00,
2013-03-24 14:44:00,72.0,70.2,29.70,SW,225,11.0,15.0,94,0.00,,,0.00,meteohub,2013-03-24 18:44:00,
2013-03-24 14:46:00,72.0,70.2,29.70,SE,135,11.0,15.0,94,0.00,,,0.00,meteohub,2013-03-24 18:46:00,
2013-03-24 14:48:00,72.0,70.2,29.70,SW,225,9.0,15.0,94,0.00,,,0.00,meteohub,2013-03-24 18:48:00,
2013-03-24 14:50:00,72.0,70.2,29.70,SW,225,15.0,15.0,94,0.00,,,0.00,meteohub,2013-03-24 18:50:00,
2013-03-24 14:52:00,72.0,70.2,29.70,South,180,13.0,15.0,94,0.00,,,0.00,meteohub,2013-03-24 18:52:00,
2013-03-24 14:54:00,72.0,70.5,29.70,SW,225,11.0,15.0,95,0.00,,,0.00,meteohub,2013-03-24 18:54:00,
2013-03-24 14:57:00,72.0,70.5,29.70,South,180,17.0,17.0,95,0.00,,,0.00,meteohub,2013-03-24 18:57:00,
2013-03-24 14:59:00,72.0,70.5,29.70,SW,225,12.0,15.0,95,0.00,,,0.00,meteohub,2013-03-24 18:59:00,
2013-03-24 15:00:00,72.0,70.5,29.70,WSW,248,13.0,15.0,95,0.00,,,0.00,meteohub,2013-03-24 19:00:00,
2013-03-24 15:02:00,72.0,70.5,29.70,SW,225,12.0,17.0,95,0.00,,,0.00,meteohub,2013-03-24 19:02:00,
2013-03-24 15:04:00,72.0,70.5,29.70,SW,225,13.0,17.0,95,0.00,,,0.00,meteohub,2013-03-24 19:04:00,
2013-03-24 15:07:00,72.0,70.5,29.70,SW,225,11.0,17.0,95,0.00,,,0.00,meteohub,2013-03-24 19:07:00,
2013-03-24 15:10:00,72.3,70.5,29.70,SW,225,13.0,17.0,94,0.00,,,0.00,meteohub,2013-03-24 19:10:00,
2013-03-24 15:12:00,72.5,70.7,29.70,SW,225,15.0,17.0,94,0.00,,,0.00,meteohub,2013-03-24 19:12:00,
2013-03-24 15:13:00,72.7,70.9,29.70,South,180,17.0,17.0,94,0.00,,,0.00,meteohub,2013-03-24 19:13:00,
2013-03-24 15:18:00,72.5,70.7,29.70,South,180,15.0,17.0,94,0.00,,,0.00,meteohub,2013-03-24 19:18:00,
2013-03-24 15:19:00,72.5,70.7,29.70,SW,225,15.0,17.0,94,0.00,,,0.00,meteohub,2013-03-24 19:19:00,
2013-03-24 15:20:00,72.5,70.7,29.70,SW,225,13.0,17.0,94,0.00,,,0.00,meteohub,2013-03-24 19:20:00,
2013-03-24 15:24:00,72.5,70.7,29.70,South,180,11.0,17.0,94,0.00,,,0.00,meteohub,2013-03-24 19:24:00,
2013-03-24 15:25:00,72.5,70.7,29.70,SW,225,11.0,17.0,94,0.00,,,0.00,meteohub,2013-03-24 19:25:00,
2013-03-24 15:27:00,72.7,70.9,29.70,SW,225,12.0,17.0,94,0.00,,,0.00,meteohub,2013-03-24 19:27:00,
2013-03-24 15:30:00,72.7,70.5,29.70,SW,225,10.0,15.0,93,0.00,,,0.00,meteohub,2013-03-24 19:30:00,
2013-03-24 15:32:00,72.7,70.5,29.70,WSW,248,11.0,15.0,93,0.00,,,0.00,meteohub,2013-03-24 19:32:00,
2013-03-24 15:33:00,72.7,70.5,29.70,SW,225,10.0,15.0,93,0.00,,,0.00,meteohub,2013-03-24 19:33:00,
2013-03-24 15:36:00,72.9,70.7,29.70,SW,225,15.0,15.0,93,0.00,,,0.00,meteohub,2013-03-24 19:36:00,
2013-03-24 15:37:00,72.9,70.7,29.70,SW,225,12.0,15.0,93,0.00,,,0.00,meteohub,2013-03-24 19:37:00,
2013-03-24 15:38:00,72.7,70.5,29.70,South,180,13.0,15.0,93,0.00,,,0.00,meteohub,2013-03-24 19:38:00,
2013-03-24 15:39:00,72.5,70.3,29.70,SW,225,12.0,15.0,93,0.00,,,0.00,meteohub,2013-03-24 19:39:00,
2013-03-24 15:41:00,72.5,70.3,29.70,SW,225,10.0,15.0,93,0.00,,,0.00,meteohub,2013-03-24 19:41:00,
2013-03-24 15:43:00,72.3,70.5,29.70,SW,225,9.0,15.0,94,0.00,,,0.00,meteohub,2013-03-24 19:43:00,
2013-03-24 15:45:00,72.3,70.5,29.70,South,180,15.0,15.0,94,0.00,,,0.00,meteohub,2013-03-24 19:45:00,
2013-03-24 15:46:00,72.3,70.5,29.69,SW,225,12.0,15.0,94,0.00,,,0.00,meteohub,2013-03-24 19:46:00,
2013-03-24 15:49:00,72.3,70.5,29.70,SW,225,11.0,15.0,94,0.00,,,0.00,meteohub,2013-03-24 19:49:00,
2013-03-24 15:50:00,72.3,70.5,29.69,SW,225,15.0,15.0,94,0.00,,,0.00,meteohub,2013-03-24 19:50:00,
2013-03-24 15:52:00,72.3,70.5,29.69,South,180,7.0,15.0,94,0.00,,,0.00,meteohub,2013-03-24 19:52:00,
2013-03-24 15:53:00,72.3,70.5,29.69,South,180,14.0,15.0,94,0.00,,,0.00,meteohub,2013-03-24 19:53:00,
2013-03-24 15:55:00,72.5,70.7,29.69,SW,225,7.0,15.0,94,0.00,,,0.00,meteohub,2013-03-24 19:55:00,
2013-03-24 15:56:00,72.7,70.9,29.69,South,180,11.0,15.0,94,0.00,,,0.00,meteohub,2013-03-24 19:56:00,
2013-03-24 15:59:00,72.7,70.9,29.69,South,180,13.0,15.0,94,0.00,,,0.00,meteohub,2013-03-24 19:59:00,
2013-03-24 16:01:00,72.7,70.9,29.69,SW,225,8.0,15.0,94,0.00,,,0.00,meteohub,2013-03-24 20:01:00,
2013-03-24 16:03:00,72.7,70.9,29.69,SW,225,13.0,15.0,94,0.00,,,0.00,meteohub,2013-03-24 20:03:00,
2013-03-24 16:05:00,72.9,71.1,29.69,NNW,338,11.0,15.0,94,0.00,,,0.00,meteohub,2013-03-24 20:05:00,
2013-03-24 16:07:00,72.9,71.1,29.68,SW,225,14.0,15.0,94,0.00,,,0.00,meteohub,2013-03-24 20:07:00,
2013-03-24 16:08:00,72.9,71.1,29.68,SW,225,14.0,15.0,94,0.00,,,0.00,meteohub,2013-03-24 20:08:00,
2013-03-24 16:09:00,73.0,71.2,29.68,SW,225,12.0,15.0,94,0.00,,,0.00,meteohub,2013-03-24 20:09:00,
2013-03-24 16:11:00,73.2,71.4,29.69,SW,225,11.0,15.0,94,0.00,,,0.00,meteohub,2013-03-24 20:11:00,
2013-03-24 16:14:00,73.4,72.0,29.69,SW,225,12.0,15.0,95,0.00,,,0.00,meteohub,2013-03-24 20:14:00,
2013-03-24 16:19:00,73.8,72.0,29.68,SW,225,7.0,15.0,94,0.00,,,0.00,meteohub,2013-03-24 20:19:00,
2013-03-24 16:20:00,73.8,72.0,29.68,SW,225,9.0,15.0,94,0.00,,,0.00,meteohub,2013-03-24 20:20:00,
2013-03-24 16:23:00,73.9,71.8,29.68,SW,225,13.0,15.0,93,0.00,,,0.00,meteohub,2013-03-24 20:23:00,
2013-03-24 16:25:00,73.9,71.8,29.68,South,180,14.0,15.0,93,0.00,,,0.00,meteohub,2013-03-24 20:25:00,
2013-03-24 16:26:00,73.8,71.6,29.68,SW,225,11.0,15.0,93,0.00,,,0.00,meteohub,2013-03-24 20:26:00,
2013-03-24 16:27:00,73.8,71.6,29.68,NW,315,8.0,15.0,93,0.00,,,0.00,meteohub,2013-03-24 20:27:00,
2013-03-24 16:29:00,73.8,71.6,29.68,SW,225,6.0,15.0,93,0.00,,,0.00,meteohub,2013-03-24 20:29:00,
2013-03-24 16:31:00,73.8,71.6,29.68,South,180,11.0,15.0,93,0.00,,,0.00,meteohub,2013-03-24 20:31:00,
2013-03-24 16:32:00,73.8,71.6,29.68,SW,225,15.0,15.0,93,0.00,,,0.00,meteohub,2013-03-24 20:32:00,
2013-03-24 16:36:00,73.6,71.4,29.68,South,180,11.0,15.0,93,0.00,,,0.00,meteohub,2013-03-24 20:36:00,
2013-03-24 16:37:00,73.4,71.2,29.68,SW,225,11.0,15.0,93,0.00,,,0.00,meteohub,2013-03-24 20:37:00,
2013-03-24 16:39:00,73.4,71.2,29.68,NNW,338,9.0,15.0,93,0.00,,,0.00,meteohub,2013-03-24 20:39:00,
2013-03-24 16:42:00,73.4,71.2,29.68,South,180,14.0,15.0,93,0.00,,,0.00,meteohub,2013-03-24 20:42:00,
2013-03-24 16:43:00,73.2,70.7,29.68,SW,225,8.0,15.0,92,0.00,,,0.00,meteohub,2013-03-24 20:43:00,
2013-03-24 16:45:00,73.4,71.6,29.68,NW,315,15.0,15.0,94,0.00,,,0.00,meteohub,2013-03-24 20:45:00,
2013-03-24 16:47:00,73.4,71.6,29.68,SW,225,11.0,15.0,94,0.00,,,0.00,meteohub,2013-03-24 20:47:00,
2013-03-24 16:48:00,73.6,72.1,29.68,SW,225,11.0,15.0,95,0.00,,,0.00,meteohub,2013-03-24 20:48:00,
2013-03-24 16:52:00,73.8,72.3,29.68,SW,225,8.0,15.0,95,0.00,,,0.00,meteohub,2013-03-24 20:52:00,
2013-03-24 16:53:00,73.8,72.3,29.68,NNE,23,10.0,15.0,95,0.00,,,0.00,meteohub,2013-03-24 20:53:00,
2013-03-24 16:55:00,73.8,72.3,29.68,NNW,338,9.0,15.0,95,0.00,,,0.00,meteohub,2013-03-24 20:55:00,
2013-03-24 16:58:00,73.8,72.0,29.68,South,180,15.0,17.0,94,0.00,,,0.00,meteohub,2013-03-24 20:58:00,
2013-03-24 16:59:00,73.8,72.0,29.68,South,180,15.0,17.0,94,0.00,,,0.00,meteohub,2013-03-24 20:59:00,
2013-03-24 17:04:00,73.8,72.0,29.68,SW,225,12.0,17.0,94,0.00,,,0.00,meteohub,2013-03-24 21:04:00,
2013-03-24 17:05:00,73.6,71.8,29.68,NNW,338,10.0,17.0,94,0.00,,,0.00,meteohub,2013-03-24 21:05:00,
2013-03-24 17:07:00,73.6,71.8,29.68,SW,225,11.0,17.0,94,0.00,,,0.00,meteohub,2013-03-24 21:07:00,
2013-03-24 17:09:00,73.4,71.6,29.68,South,180,11.0,17.0,94,0.00,,,0.00,meteohub,2013-03-24 21:09:00,
2013-03-24 17:10:00,73.4,71.6,29.68,West,270,8.0,17.0,94,0.00,,,0.00,meteohub,2013-03-24 21:10:00,
2013-03-24 17:12:00,73.2,71.1,29.68,NW,315,12.0,15.0,93,0.00,,,0.00,meteohub,2013-03-24 21:12:00,
2013-03-24 17:15:00,73.2,71.1,29.68,South,180,10.0,15.0,93,0.00,,,0.00,meteohub,2013-03-24 21:15:00,
2013-03-24 17:17:00,73.2,71.1,29.68,SW,225,13.0,14.0,93,0.00,,,0.00,meteohub,2013-03-24 21:17:00,
2013-03-24 17:20:00,73.0,70.9,29.68,South,180,15.0,15.0,93,0.00,,,0.00,meteohub,2013-03-24 21:20:00,
2013-03-24 17:22:00,73.0,71.2,29.68,SW,225,13.0,13.0,94,0.00,,,0.00,meteohub,2013-03-24 21:22:00,
2013-03-24 17:27:00,72.9,71.1,29.68,NW,315,11.0,16.0,94,0.00,,,0.00,meteohub,2013-03-24 21:27:00,
2013-03-24 17:28:00,72.9,71.1,29.68,SW,225,12.0,16.0,94,0.00,,,0.00,meteohub,2013-03-24 21:28:00,
2013-03-24 17:32:00,72.9,71.1,29.68,SW,225,9.0,16.0,94,0.00,,,0.00,meteohub,2013-03-24 21:32:00,
2013-03-24 17:34:00,72.9,71.1,29.68,WSW,248,10.0,16.0,94,0.00,,,0.00,meteohub,2013-03-24 21:34:00,
2013-03-24 17:38:00,73.0,71.2,29.68,South,180,13.0,18.0,94,0.00,,,0.00,meteohub,2013-03-24 21:38:00,
2013-03-24 17:39:00,73.0,71.2,29.68,NW,315,9.0,18.0,94,0.00,,,0.00,meteohub,2013-03-24 21:39:00,
2013-03-24 17:40:00,72.9,71.1,29.68,SW,225,12.0,18.0,94,0.00,,,0.00,meteohub,2013-03-24 21:40:00,
2013-03-24 17:44:00,72.9,71.1,29.68,South,180,11.0,18.0,94,0.00,,,0.00,meteohub,2013-03-24 21:44:00,
2013-03-24 17:45:00,72.7,70.9,29.68,West,270,11.0,14.0,94,0.00,,,0.00,meteohub,2013-03-24 21:45:00,
2013-03-24 17:46:00,72.7,70.9,29.68,SW,225,10.0,14.0,94,0.00,,,0.00,meteohub,2013-03-24 21:46:00,
2013-03-24 17:49:00,72.7,70.9,29.68,SW,225,11.0,14.0,94,0.00,,,0.00,meteohub,2013-03-24 21:49:00,
2013-03-24 17:52:00,72.5,70.7,29.68,SW,225,12.0,13.0,94,0.00,,,0.00,meteohub,2013-03-24 21:52:00,
2013-03-24 17:54:00,72.5,70.7,29.68,West,270,9.0,13.0,94,0.00,,,0.00,meteohub,2013-03-24 21:54:00,
2013-03-24 17:55:00,72.3,70.5,29.68,NW,315,13.0,17.0,94,0.00,,,0.00,meteohub,2013-03-24 21:55:00,
2013-03-24 17:57:00,72.3,70.5,29.68,West,270,11.0,17.0,94,0.00,,,0.00,meteohub,2013-03-24 21:57:00,
2013-03-24 17:58:00,72.3,70.5,29.68,West,270,10.0,17.0,94,0.00,,,0.00,meteohub,2013-03-24 21:58:00,
2013-03-24 18:01:00,72.1,70.3,29.68,West,270,6.0,17.0,94,0.00,,,0.00,meteohub,2013-03-24 22:01:00,
2013-03-24 18:02:00,72.1,70.3,29.68,West,270,6.0,17.0,94,0.00,,,0.00,meteohub,2013-03-24 22:02:00,
2013-03-24 18:03:00,72.1,70.7,29.68,SW,225,8.0,17.0,95,0.00,,,0.00,meteohub,2013-03-24 22:03:00,
2013-03-24 18:07:00,72.0,70.2,29.69,West,270,8.0,17.0,94,0.00,,,0.00,meteohub,2013-03-24 22:07:00,
2013-03-24 18:08:00,72.0,70.5,29.68,SW,225,11.0,17.0,95,0.00,,,0.00,meteohub,2013-03-24 22:08:00,
2013-03-24 18:09:00,72.0,70.5,29.68,SW,225,11.0,17.0,95,0.00,,,0.00,meteohub,2013-03-24 22:09:00,
2013-03-24 18:12:00,72.0,70.5,29.69,SW,225,7.0,13.0,95,0.00,,,0.00,meteohub,2013-03-24 22:12:00,
2013-03-24 18:14:00,72.0,70.5,29.69,NW,315,9.0,13.0,95,0.00,,,0.00,meteohub,2013-03-24 22:14:00,
2013-03-24 18:17:00,71.8,70.3,29.69,NW,315,11.0,11.0,95,0.00,,,0.00,meteohub,2013-03-24 22:17:00,
2013-03-24 18:18:00,72.0,70.5,29.69,South,180,6.0,11.0,95,0.00,,,0.00,meteohub,2013-03-24 22:18:00,
2013-03-24 18:20:00,72.0,70.5,29.69,West,270,7.0,11.0,95,0.00,,,0.00,meteohub,2013-03-24 22:20:00,
2013-03-24 18:22:00,72.0,70.5,29.69,NW,315,12.0,12.0,95,0.00,,,0.00,meteohub,2013-03-24 22:22:00,
2013-03-24 18:24:00,72.0,70.5,29.69,SW,225,7.0,11.0,95,0.00,,,0.00,meteohub,2013-03-24 22:24:00,
2013-03-24 18:26:00,72.0,70.5,29.69,West,270,8.0,12.0,95,0.00,,,0.00,meteohub,2013-03-24 22:26:00,
2013-03-24 18:27:00,72.0,70.5,29.69,SW,225,6.0,12.0,95,0.00,,,0.00,meteohub,2013-03-24 22:27:00,
2013-03-24 18:28:00,72.0,70.5,29.69,SW,225,8.0,12.0,95,0.00,,,0.00,meteohub,2013-03-24 22:28:00,
2013-03-24 18:29:00,72.1,70.7,29.69,West,270,5.0,12.0,95,0.00,,,0.00,meteohub,2013-03-24 22:29:00,
2013-03-24 18:32:00,72.0,70.5,29.69,South,180,8.0,12.0,95,0.00,,,0.00,meteohub,2013-03-24 22:32:00,
2013-03-24 18:33:00,72.0,70.5,29.69,West,270,12.0,12.0,95,0.00,,,0.00,meteohub,2013-03-24 22:33:00,
2013-03-24 18:36:00,72.1,70.7,29.69,SW,225,8.0,12.0,95,0.00,,,0.00,meteohub,2013-03-24 22:36:00,
2013-03-24 18:39:00,72.0,70.5,29.69,West,270,8.0,12.0,95,0.00,,,0.00,meteohub,2013-03-24 22:39:00,
2013-03-24 18:40:00,72.0,70.5,29.69,West,270,8.0,12.0,95,0.00,,,0.00,meteohub,2013-03-24 22:40:00,
2013-03-24 18:41:00,72.0,70.5,29.70,SW,225,11.0,12.0,95,0.00,,,0.00,meteohub,2013-03-24 22:41:00,
2013-03-24 18:44:00,72.0,70.5,29.69,West,270,8.0,12.0,95,0.00,,,0.00,meteohub,2013-03-24 22:44:00,
2013-03-24 18:45:00,72.0,70.5,29.70,SW,225,11.0,12.0,95,0.00,,,0.00,meteohub,2013-03-24 22:45:00,
2013-03-24 18:47:00,72.0,70.5,29.70,NW,315,7.0,12.0,95,0.00,,,0.00,meteohub,2013-03-24 22:47:00,
2013-03-24 18:49:00,72.0,70.5,29.70,NW,315,11.0,12.0,95,0.00,,,0.00,meteohub,2013-03-24 22:49:00,
2013-03-24 18:50:00,72.0,70.5,29.70,SW,225,9.0,11.0,95,0.00,,,0.00,meteohub,2013-03-24 22:50:00,
2013-03-24 18:53:00,72.0,70.5,29.70,SW,225,6.0,11.0,95,0.00,,,0.00,meteohub,2013-03-24 22:53:00,
2013-03-24 18:54:00,72.0,70.5,29.70,SW,225,6.0,11.0,95,0.00,,,0.00,meteohub,2013-03-24 22:54:00,
2013-03-24 18:55:00,72.1,70.7,29.70,SW,225,7.0,11.0,95,0.00,,,0.00,meteohub,2013-03-24 22:55:00,
2013-03-24 18:56:00,72.0,70.5,29.70,NW,315,7.0,11.0,95,0.00,,,0.00,meteohub,2013-03-24 22:56:00,
2013-03-24 18:58:00,72.0,70.5,29.70,SW,225,11.0,11.0,95,0.00,,,0.00,meteohub,2013-03-24 22:58:00,
2013-03-24 19:00:00,72.0,70.5,29.70,NE,45,11.0,11.0,95,0.00,,,0.00,meteohub,2013-03-24 23:00:00,
2013-03-24 19:02:00,72.0,70.5,29.70,SW,225,8.0,11.0,95,0.00,,,0.00,meteohub,2013-03-24 23:02:00,
2013-03-24 19:03:00,72.0,70.7,29.70,SW,225,7.0,11.0,96,0.00,,,0.00,meteohub,2013-03-24 23:03:00,
2013-03-24 19:04:00,72.0,70.7,29.70,South,180,11.0,11.0,96,0.00,,,0.00,meteohub,2013-03-24 23:04:00,
2013-03-24 19:05:00,72.0,70.7,29.70,SW,225,8.0,11.0,96,0.00,,,0.00,meteohub,2013-03-24 23:05:00,
2013-03-24 19:08:00,72.0,70.7,29.70,West,270,6.0,11.0,96,0.00,,,0.00,meteohub,2013-03-24 23:08:00,
2013-03-24 19:09:00,72.0,70.7,29.70,NNW,338,7.0,11.0,96,0.00,,,0.00,meteohub,2013-03-24 23:09:00,
2013-03-24 19:12:00,71.8,70.5,29.70,West,270,5.0,11.0,96,0.00,,,0.00,meteohub,2013-03-24 23:12:00,
2013-03-24 19:13:00,71.8,70.5,29.70,SW,225,9.0,11.0,96,0.00,,,0.00,meteohub,2013-03-24 23:13:00,
2013-03-24 19:15:00,71.8,70.5,29.70,SW,225,7.0,11.0,96,0.00,,,0.00,meteohub,2013-03-24 23:15:00,
2013-03-24 19:18:00,71.8,70.5,29.70,West,270,7.0,11.0,96,0.00,,,0.00,meteohub,2013-03-24 23:18:00,
2013-03-24 19:20:00,71.8,70.5,29.70,SW,225,9.0,11.0,96,0.00,,,0.00,meteohub,2013-03-24 23:20:00,
2013-03-24 19:21:00,71.8,70.5,29.70,SW,225,5.0,11.0,96,0.00,,,0.00,meteohub,2013-03-24 23:21:00,
2013-03-24 19:22:00,71.8,70.5,29.70,SW,225,5.0,11.0,96,0.00,,,0.00,meteohub,2013-03-24 23:22:00,
2013-03-24 19:24:00,71.6,70.3,29.70,NNW,338,8.0,11.0,96,0.00,,,0.00,meteohub,2013-03-24 23:24:00,
2013-03-24 19:27:00,71.4,70.5,29.71,WSW,248,8.0,11.0,97,0.00,,,0.00,meteohub,2013-03-24 23:27:00,
2013-03-24 19:28:00,71.4,70.5,29.71,NW,315,5.0,11.0,97,0.00,,,0.00,meteohub,2013-03-24 23:28:00,
2013-03-24 19:29:00,71.4,70.5,29.71,SW,225,7.0,11.0,97,0.00,,,0.00,meteohub,2013-03-24 23:29:00,
2013-03-24 19:30:00,71.4,70.5,29.71,SW,225,7.0,11.0,97,0.00,,,0.00,meteohub,2013-03-24 23:30:00,
2013-03-24 19:32:00,71.4,70.5,29.71,West,270,9.0,9.0,97,0.00,,,0.00,meteohub,2013-03-24 23:32:00,
2013-03-24 19:34:00,71.4,70.5,29.71,SW,225,7.0,9.0,97,0.00,,,0.00,meteohub,2013-03-24 23:34:00,
2013-03-24 19:35:00,71.2,70.3,29.71,West,270,8.0,9.0,97,0.00,,,0.00,meteohub,2013-03-24 23:35:00,
2013-03-24 19:37:00,71.2,70.3,29.71,North,0,8.0,9.0,97,0.00,,,0.00,meteohub,2013-03-24 23:37:00,
2013-03-24 19:40:00,71.2,70.3,29.71,NNW,338,4.0,9.0,97,0.00,,,0.00,meteohub,2013-03-24 23:40:00,
2013-03-24 19:41:00,71.2,70.3,29.72,SW,225,6.0,9.0,97,0.00,,,0.00,meteohub,2013-03-24 23:41:00,
2013-03-24 19:42:00,71.2,70.3,29.71,SW,225,7.0,9.0,97,0.00,,,0.00,meteohub,2013-03-24 23:42:00,
2013-03-24 19:45:00,71.1,70.2,29.72,West,270,7.0,9.0,97,0.00,,,0.00,meteohub,2013-03-24 23:45:00,
2013-03-24 19:47:00,71.1,70.2,29.72,West,270,11.0,11.0,97,0.00,,,0.00,meteohub,2013-03-24 23:47:00,
2013-03-24 19:48:00,71.1,70.2,29.72,SW,225,6.0,9.0,97,0.00,,,0.00,meteohub,2013-03-24 23:48:00,
2013-03-24 19:49:00,71.1,70.2,29.72,SW,225,4.0,9.0,97,0.00,,,0.00,meteohub,2013-03-24 23:49:00,
2013-03-24 19:51:00,70.9,70.3,29.72,NW,315,8.0,11.0,98,0.00,,,0.00,meteohub,2013-03-24 23:51:00,
2013-03-24 19:52:00,70.9,70.3,29.72,West,270,8.0,11.0,98,0.00,,,0.00,meteohub,2013-03-24 23:52:00,
2013-03-24 19:55:00,70.9,70.3,29.72,NW,315,5.0,11.0,98,0.00,,,0.00,meteohub,2013-03-24 23:55:00,
2013-03-24 19:56:00,70.9,70.3,29.71,West,270,4.0,11.0,98,0.00,,,0.00,meteohub,2013-03-24 23:56:00,
2013-03-24 19:57:00,70.9,70.3,29.72,SW,225,9.0,11.0,98,0.00,,,0.00,meteohub,2013-03-24 23:57:00,
2013-03-24 20:00:00,70.9,70.3,29.72,West,270,5.0,11.0,98,0.00,,,0.00,meteohub,2013-03-25 00:00:00,
2013-03-24 20:02:00,70.9,70.3,29.72,West,270,4.0,11.0,98,0.00,,,0.00,meteohub,2013-03-25 00:02:00,
2013-03-24 20:03:00,70.9,70.3,29.72,West,270,5.0,11.0,98,0.00,,,0.00,meteohub,2013-03-25 00:03:00,
2013-03-24 20:08:00,71.1,70.5,29.72,West,270,4.0,9.0,98,0.00,,,0.00,meteohub,2013-03-25 00:08:00,
2013-03-24 20:09:00,71.1,70.5,29.72,West,270,4.0,9.0,98,0.00,,,0.00,meteohub,2013-03-25 00:09:00,
2013-03-24 20:12:00,71.1,70.5,29.72,WNW,293,4.0,9.0,98,0.00,,,0.00,meteohub,2013-03-25 00:12:00,
2013-03-24 20:13:00,71.1,70.5,29.73,SW,225,5.0,9.0,98,0.00,,,0.00,meteohub,2013-03-25 00:13:00,
2013-03-24 20:14:00,71.2,70.7,29.73,West,270,5.0,9.0,98,0.00,,,0.00,meteohub,2013-03-25 00:14:00,
2013-03-24 20:16:00,71.2,70.7,29.73,NW,315,4.0,7.0,98,0.00,,,0.00,meteohub,2013-03-25 00:16:00,
2013-03-24 20:17:00,71.2,70.7,29.73,West,270,3.0,7.0,98,0.00,,,0.00,meteohub,2013-03-25 00:17:00,
2013-03-24 20:19:00,71.2,70.7,29.73,SW,225,4.0,7.0,98,0.00,,,0.00,meteohub,2013-03-25 00:19:00,
2013-03-24 20:21:00,71.2,70.7,29.73,SW,225,3.0,6.0,98,0.00,,,0.00,meteohub,2013-03-25 00:21:00,
2013-03-24 20:23:00,71.2,70.7,29.73,West,270,5.0,6.0,98,0.00,,,0.00,meteohub,2013-03-25 00:23:00,
2013-03-24 20:24:00,71.2,70.7,29.73,West,270,5.0,6.0,98,0.00,,,0.00,meteohub,2013-03-25 00:24:00,
2013-03-24 20:25:00,71.2,70.7,29.73,NE,45,4.0,6.0,98,0.00,,,0.00,meteohub,2013-03-25 00:25:00,
2013-03-24 20:27:00,71.2,70.7,29.73,West,270,4.0,6.0,98,0.00,,,0.00,meteohub,2013-03-25 00:27:00,
2013-03-24 20:28:00,71.1,70.5,29.74,SW,225,7.0,7.0,98,0.00,,,0.00,meteohub,2013-03-25 00:28:00,
2013-03-24 20:30:00,71.1,70.5,29.74,South,180,4.0,6.0,98,0.00,,,0.00,meteohub,2013-03-25 00:30:00,
2013-03-24 20:32:00,71.1,70.5,29.73,West,270,4.0,6.0,98,0.00,,,0.00,meteohub,2013-03-25 00:32:00,
2013-03-24 20:33:00,71.1,70.5,29.73,West,270,4.0,6.0,98,0.00,,,0.00,meteohub,2013-03-25 00:33:00,
2013-03-24 20:35:00,71.1,70.5,29.74,North,0,3.0,6.0,98,0.00,,,0.00,meteohub,2013-03-25 00:35:00,
2013-03-24 20:37:00,70.9,70.3,29.73,NW,315,5.0,7.0,98,0.00,,,0.00,meteohub,2013-03-25 00:37:00,
2013-03-24 20:38:00,70.9,70.3,29.73,West,270,6.0,7.0,98,0.00,,,0.00,meteohub,2013-03-25 00:38:00,
2013-03-24 20:42:00,70.9,70.3,29.74,WSW,248,4.0,7.0,98,0.00,,,0.00,meteohub,2013-03-25 00:42:00,
2013-03-24 20:43:00,70.9,70.3,29.74,NW,315,2.0,7.0,98,0.00,,,0.00,meteohub,2013-03-25 00:43:00,
2013-03-24 20:45:00,70.9,70.3,29.74,West,270,3.0,7.0,98,0.00,,,0.00,meteohub,2013-03-25 00:45:00,
2013-03-24 20:48:00,70.7,70.2,29.74,North,0,1.0,7.0,98,0.00,,,0.00,meteohub,2013-03-25 00:48:00,
2013-03-24 20:49:00,70.7,70.2,29.74,North,0,1.0,7.0,98,0.00,,,0.00,meteohub,2013-03-25 00:49:00,
2013-03-24 20:51:00,70.7,70.2,29.74,NW,315,2.0,7.0,98,0.00,,,0.00,meteohub,2013-03-25 00:51:00,
2013-03-24 20:52:00,70.7,70.2,29.74,North,0,2.0,7.0,98,0.00,,,0.00,meteohub,2013-03-25 00:52:00,
2013-03-24 20:54:00,70.7,70.2,29.74,WSW,248,4.0,7.0,98,0.00,,,0.00,meteohub,2013-03-25 00:54:00,
2013-03-24 20:56:00,70.7,70.2,29.74,NW,315,3.0,4.0,98,0.00,,,0.00,meteohub,2013-03-25 00:56:00,
2013-03-24 20:59:00,70.7,70.2,29.74,West,270,3.0,4.0,98,0.00,,,0.00,meteohub,2013-03-25 00:59:00,
2013-03-24 21:00:00,70.7,70.2,29.74,West,270,4.0,4.0,98,0.00,,,0.00,meteohub,2013-03-25 01:00:00,
2013-03-24 21:02:00,70.7,70.2,29.75,SW,225,4.0,4.0,98,0.00,,,0.00,meteohub,2013-03-25 01:02:00,
2013-03-24 21:05:00,70.7,70.2,29.75,West,270,2.0,4.0,98,0.00,,,0.00,meteohub,2013-03-25 01:05:00,
2013-03-24 21:07:00,70.7,70.2,29.75,NW,315,3.0,4.0,98,0.00,,,0.00,meteohub,2013-03-25 01:07:00,
2013-03-24 21:09:00,70.5,70.0,29.75,West,270,2.0,4.0,98,0.00,,,0.00,meteohub,2013-03-25 01:09:00,
2013-03-24 21:10:00,70.5,70.0,29.75,West,270,2.0,4.0,98,0.00,,,0.00,meteohub,2013-03-25 01:10:00,
2013-03-24 21:11:00,70.5,70.0,29.75,West,270,4.0,4.0,98,0.00,,,0.00,meteohub,2013-03-25 01:11:00,
2013-03-24 21:12:00,70.5,70.0,29.75,North,0,2.0,4.0,98,0.00,,,0.00,meteohub,2013-03-25 01:12:00,
2013-03-24 21:15:00,70.5,70.0,29.75,NW,315,2.0,4.0,98,0.00,,,0.00,meteohub,2013-03-25 01:15:00,
2013-03-24 21:17:00,70.5,70.0,29.75,North,0,2.0,4.0,98,0.00,,,0.00,meteohub,2013-03-25 01:17:00,
2013-03-24 21:18:00,70.5,70.0,29.75,SW,225,2.0,4.0,98,0.00,,,0.00,meteohub,2013-03-25 01:18:00,
2013-03-24 21:19:00,70.3,69.8,29.75,West,270,1.0,4.0,98,0.00,,,0.00,meteohub,2013-03-25 01:19:00,
2013-03-24 21:20:00,70.3,69.8,29.75,West,270,1.0,4.0,98,0.00,,,0.00,meteohub,2013-03-25 01:20:00,
2013-03-24 21:24:00,70.3,69.8,29.75,West,270,2.0,4.0,98,0.00,,,0.00,meteohub,2013-03-25 01:24:00,
2013-03-24 21:27:00,70.3,69.8,29.76,West,270,2.0,4.0,98,0.00,,,0.00,meteohub,2013-03-25 01:27:00,
2013-03-24 21:28:00,70.3,69.8,29.76,West,270,2.0,4.0,98,0.00,,,0.00,meteohub,2013-03-25 01:28:00,
2013-03-24 21:31:00,70.3,69.8,29.76,West,270,1.0,3.0,98,0.00,,,0.00,meteohub,2013-03-25 01:31:00,
2013-03-24 21:33:00,70.3,69.8,29.76,West,270,2.0,3.0,98,0.00,,,0.00,meteohub,2013-03-25 01:33:00,
2013-03-24 21:34:00,70.3,69.8,29.76,NW,315,1.0,3.0,98,0.00,,,0.00,meteohub,2013-03-25 01:34:00,
2013-03-24 21:36:00,70.3,69.8,29.76,West,270,2.0,3.0,98,0.00,,,0.00,meteohub,2013-03-25 01:36:00,
2013-03-24 21:38:00,70.2,69.6,29.76,NW,315,1.0,3.0,98,0.00,,,0.00,meteohub,2013-03-25 01:38:00,
2013-03-24 21:41:00,70.2,69.6,29.76,North,0,2.0,2.0,98,0.00,,,0.00,meteohub,2013-03-25 01:41:00,
2013-03-24 21:42:00,70.2,69.6,29.76,North,0,1.0,2.0,98,0.00,,,0.00,meteohub,2013-03-25 01:42:00,
2013-03-24 21:44:00,70.2,69.6,29.76,NW,315,1.0,2.0,98,0.00,,,0.00,meteohub,2013-03-25 01:44:00,
2013-03-24 21:47:00,70.2,69.6,29.76,NW,315,1.0,2.0,98,0.00,,,0.00,meteohub,2013-03-25 01:47:00,
2013-03-24 21:48:00,70.2,69.6,29.76,North,0,2.0,2.0,98,0.00,,,0.00,meteohub,2013-03-25 01:48:00,
2013-03-24 21:50:00,70.3,69.8,29.76,North,0,0.0,2.0,98,0.00,,,0.00,meteohub,2013-03-25 01:50:00,
2013-03-24 21:53:00,70.3,69.8,29.76,NW,315,1.0,2.0,98,0.00,,,0.00,meteohub,2013-03-25 01:53:00,
2013-03-24 21:54:00,70.3,69.8,29.76,South,180,1.0,2.0,98,0.00,,,0.00,meteohub,2013-03-25 01:54:00,
2013-03-24 21:55:00,70.3,69.8,29.76,North,0,1.0,2.0,98,0.00,,,0.00,meteohub,2013-03-25 01:55:00,
2013-03-24 21:57:00,70.3,69.8,29.76,NW,315,2.0,2.0,98,0.00,,,0.00,meteohub,2013-03-25 01:57:00,
2013-03-24 21:58:00,70.3,69.8,29.77,West,270,1.0,2.0,98,0.00,,,0.00,meteohub,2013-03-25 01:58:00,
2013-03-24 22:01:00,70.3,69.8,29.77,NW,315,2.0,2.0,98,0.00,,,0.00,meteohub,2013-03-25 02:01:00,
2013-03-24 22:02:00,70.3,69.8,29.77,West,270,2.0,2.0,98,0.00,,,0.00,meteohub,2013-03-25 02:02:00,
2013-03-24 22:05:00,70.3,69.8,29.77,NW,315,4.0,4.0,98,0.00,,,0.00,meteohub,2013-03-25 02:05:00,
2013-03-24 22:07:00,70.3,69.8,29.77,West,270,3.0,3.0,98,0.00,,,0.00,meteohub,2013-03-25 02:07:00,
2013-03-24 22:08:00,70.3,69.8,29.77,NW,315,1.0,2.0,98,0.00,,,0.00,meteohub,2013-03-25 02:08:00,
2013-03-24 22:10:00,70.3,69.8,29.77,NW,315,5.0,5.0,98,0.00,,,0.00,meteohub,2013-03-25 02:10:00,
2013-03-24 22:13:00,70.3,69.8,29.78,North,0,2.0,4.0,98,0.00,,,0.00,meteohub,2013-03-25 02:13:00,
2013-03-24 22:15:00,70.3,69.8,29.78,North,0,2.0,4.0,98,0.00,,,0.00,meteohub,2013-03-25 02:15:00,
2013-03-24 22:16:00,70.3,69.8,29.78,NW,315,3.0,5.0,98,0.00,,,0.00,meteohub,2013-03-25 02:16:00,
2013-03-24 22:17:00,70.3,69.8,29.77,SW,225,1.0,5.0,98,0.00,,,0.00,meteohub,2013-03-25 02:17:00,
2013-03-24 22:20:00,70.2,69.6,29.78,West,270,2.0,5.0,98,0.00,,,0.00,meteohub,2013-03-25 02:20:00,
2013-03-24 22:22:00,70.2,69.6,29.78,WNW,293,4.0,5.0,98,0.00,,,0.00,meteohub,2013-03-25 02:22:00,
2013-03-24 22:23:00,70.2,69.6,29.78,NE,45,3.0,5.0,98,0.00,,,0.00,meteohub,2013-03-25 02:23:00,
2013-03-24 22:27:00,70.3,69.4,29.78,SW,225,3.0,5.0,97,0.00,,,0.00,meteohub,2013-03-25 02:27:00,
2013-03-24 22:28:00,70.3,69.4,29.78,NW,315,3.0,5.0,97,0.00,,,0.00,meteohub,2013-03-25 02:28:00,
2013-03-24 22:33:00,70.3,69.4,29.78,South,180,2.0,4.0,97,0.00,,,0.00,meteohub,2013-03-25 02:33:00,
2013-03-24 22:34:00,70.3,69.4,29.78,NW,315,2.0,4.0,97,0.00,,,0.00,meteohub,2013-03-25 02:34:00,
2013-03-24 22:36:00,70.3,69.1,29.78,East,90,4.0,4.0,96,0.00,,,0.00,meteohub,2013-03-25 02:36:00,
2013-03-24 22:40:00,70.3,69.1,29.78,NW,315,4.0,4.0,96,0.00,,,0.00,meteohub,2013-03-25 02:40:00,
2013-03-24 22:43:00,70.3,69.1,29.79,North,0,2.0,4.0,96,0.00,,,0.00,meteohub,2013-03-25 02:43:00,
2013-03-24 22:45:00,70.3,68.9,29.79,NE,45,2.0,4.0,95,0.00,,,0.00,meteohub,2013-03-25 02:45:00,
2013-03-24 22:48:00,70.3,68.9,29.79,West,270,2.0,4.0,95,0.00,,,0.00,meteohub,2013-03-25 02:48:00,
2013-03-24 22:49:00,70.3,68.9,29.79,West,270,2.0,4.0,95,0.00,,,0.00,meteohub,2013-03-25 02:49:00,
2013-03-24 22:50:00,70.2,68.7,29.79,NW,315,2.0,4.0,95,0.00,,,0.00,meteohub,2013-03-25 02:50:00,
2013-03-24 22:51:00,70.2,68.7,29.79,NW,315,2.0,4.0,95,0.00,,,0.00,meteohub,2013-03-25 02:51:00,
2013-03-24 22:54:00,70.2,68.7,29.79,WSW,248,3.0,4.0,95,0.00,,,0.00,meteohub,2013-03-25 02:54:00,
2013-03-24 22:56:00,70.2,68.7,29.79,SW,225,2.0,4.0,95,0.00,,,0.00,meteohub,2013-03-25 02:56:00,
2013-03-24 22:57:00,70.2,68.7,29.78,NW,315,4.0,4.0,95,0.00,,,0.00,meteohub,2013-03-25 02:57:00,
2013-03-24 23:00:00,70.0,68.2,29.79,NW,315,4.0,4.0,94,0.00,,,0.00,meteohub,2013-03-25 03:00:00,
2013-03-24 23:01:00,70.0,68.2,29.79,NW,315,4.0,4.0,94,0.00,,,0.00,meteohub,2013-03-25 03:01:00,
2013-03-24 23:02:00,70.0,68.2,29.78,SW,225,2.0,4.0,94,0.00,,,0.00,meteohub,2013-03-25 03:02:00,
2013-03-24 23:05:00,70.0,68.2,29.78,SW,225,2.0,4.0,94,0.00,,,0.00,meteohub,2013-03-25 03:05:00,
2013-03-24 23:06:00,70.0,68.2,29.78,West,270,2.0,4.0,94,0.00,,,0.00,meteohub,2013-03-25 03:06:00,
2013-03-24 23:07:00,70.0,68.2,29.78,West,270,2.0,4.0,94,0.00,,,0.00,meteohub,2013-03-25 03:07:00,
2013-03-24 23:11:00,70.0,68.2,29.78,West,270,2.0,4.0,94,0.00,,,0.00,meteohub,2013-03-25 03:11:00,
2013-03-24 23:12:00,70.0,68.2,29.78,East,90,1.0,4.0,94,0.00,,,0.00,meteohub,2013-03-25 03:12:00,
2013-03-24 23:16:00,69.8,68.0,29.78,NW,315,1.0,4.0,94,0.00,,,0.00,meteohub,2013-03-25 03:16:00,
2013-03-24 23:19:00,69.8,68.0,29.78,NW,315,2.0,4.0,94,0.00,,,0.00,meteohub,2013-03-25 03:19:00,
2013-03-24 23:20:00,69.8,68.0,29.78,North,0,2.0,4.0,94,0.00,,,0.00,meteohub,2013-03-25 03:20:00,
2013-03-24 23:24:00,69.6,68.2,29.78,West,270,2.0,4.0,95,0.00,,,0.00,meteohub,2013-03-25 03:24:00,
2013-03-24 23:25:00,69.6,68.2,29.78,North,0,1.0,4.0,95,0.00,,,0.00,meteohub,2013-03-25 03:25:00,
2013-03-24 23:27:00,69.6,68.2,29.78,West,270,2.0,4.0,95,0.00,,,0.00,meteohub,2013-03-25 03:27:00,
2013-03-24 23:28:00,69.6,68.2,29.78,NW,315,2.0,4.0,95,0.00,,,0.00,meteohub,2013-03-25 03:28:00,
2013-03-24 23:30:00,69.6,68.2,29.78,NW,315,2.0,4.0,95,0.00,,,0.00,meteohub,2013-03-25 03:30:00,
2013-03-24 23:31:00,69.6,68.2,29.78,NW,315,2.0,4.0,95,0.00,,,0.00,meteohub,2013-03-25 03:31:00,
2013-03-24 23:32:00,69.6,68.2,29.78,West,270,2.0,4.0,95,0.00,,,0.00,meteohub,2013-03-25 03:32:00,
2013-03-24 23:33:00,69.4,68.0,29.78,SW,225,2.0,4.0,95,0.00,,,0.00,meteohub,2013-03-25 03:33:00,
2013-03-24 23:37:00,69.4,67.6,29.78,South,180,2.0,4.0,94,0.00,,,0.00,meteohub,2013-03-25 03:37:00,
2013-03-24 23:39:00,69.4,67.6,29.78,NW,315,2.0,4.0,94,0.00,,,0.00,meteohub,2013-03-25 03:39:00,
2013-03-24 23:40:00,69.4,67.6,29.78,West,270,2.0,4.0,94,0.00,,,0.00,meteohub,2013-03-25 03:40:00,
2013-03-24 23:42:00,69.3,67.5,29.78,West,270,2.0,4.0,94,0.00,,,0.00,meteohub,2013-03-25 03:42:00,
2013-03-24 23:44:00,69.3,67.5,29.78,West,270,2.0,4.0,94,0.00,,,0.00,meteohub,2013-03-25 03:44:00,
2013-03-24 23:46:00,69.3,67.5,29.78,SW,225,2.0,4.0,94,0.00,,,0.00,meteohub,2013-03-25 03:46:00,
2013-03-24 23:47:00,69.3,67.5,29.78,NW,315,4.0,4.0,94,0.00,,,0.00,meteohub,2013-03-25 03:47:00,
2013-03-24 23:49:00,69.3,67.8,29.78,West,270,2.0,4.0,95,0.00,,,0.00,meteohub,2013-03-25 03:49:00,
2013-03-24 23:51:00,69.1,67.6,29.78,SW,225,3.0,4.0,95,0.00,,,0.00,meteohub,2013-03-25 03:51:00,
2013-03-24 23:52:00,69.1,67.6,29.78,SW,225,3.0,4.0,95,0.00,,,0.00,meteohub,2013-03-25 03:52:00,
2013-03-24 23:54:00,69.1,67.6,29.78,South,180,2.0,4.0,95,0.00,,,0.00,meteohub,2013-03-25 03:54:00,
2013-03-24 23:59:00,68.9,67.5,29.78,NW,315,2.0,4.0,95,0.00,,,0.00,meteohub,2013-03-25 03:59:00,